Time,TemperatureF,DewpointF,PressureIn,WindDirection,WindDirectionDegrees,WindSpeedMPH,WindSpeedGustMPH,Humidity,HourlyPrecipIn,Conditions,Clouds,dailyrainin,SoftwareType,DateUTC
2013-01-20 00:00:00,47.7,9.6,30.06,ENE,60,0.0,0.0,21,0.00,CLR,,0.00,WeatherDisplay:10.37,2013-01-20 08:00:00,
2013-01-20 00:01:00,47.7,9.6,30.06,ENE,60,0.0,0.0,21,0.00,CLR,,0.00,WeatherDisplay:10.37,2013-01-20 08:01:00,
2013-01-20 00:04:00,47.9,8.7,30.06,East,82,0.0,0.0,20,0.00,CLR,,0.00,WeatherDisplay:10.37,2013-01-20 08:04:00,
2013-01-20 00:05:00,47.9,8.7,30.06,East,82,0.0,0.0,20,0.00,CLR,,0.00,WeatherDisplay:10.37,2013-01-20 08:05:00,
2013-01-20 00:06:00,47.9,8.7,30.06,East,82,0.0,0.0,20,0.00,CLR,,0.00,WeatherDisplay:10.37,2013-01-20 08:06:00,
2013-01-20 00:09:00,47.9,8.7,30.06,East,82,0.0,0.0,20,0.00,CLR,,0.00,WeatherDisplay:10.37,2013-01-20 08:09:00,
2013-01-20 00:10:00,48.0,8.8,30.06,East,82,0.0,0.0,20,0.00,CLR,,0.00,WeatherDisplay:10.37,2013-01-20 08:10:00,
2013-01-20 00:12:00,48.0,8.8,30.06,East,82,0.0,0.0,20,0.00,CLR,,0.00,WeatherDisplay:10.37,2013-01-20 08:12:00,
2013-01-20 00:15:00,47.9,8.7,30.06,East,82,0.0,0.0,20,0.00,CLR,,0.00,WeatherDisplay:10.37,2013-01-20 08:15:00,
2013-01-20 00:16:00,47.9,8.7,30.06,East,82,0.0,0.0,20,0.00,CLR,,0.00,WeatherDisplay:10.37,2013-01-20 08:16:00,
2013-01-20 00:18:00,47.9,8.7,30.06,East,82,0.0,0.0,20,0.00,CLR,,0.00,WeatherDisplay:10.37,2013-01-20 08:18:00,
2013-01-20 00:21:00,47.7,8.5,30.06,East,82,0.0,0.0,20,0.00,CLR,,0.00,WeatherDisplay:10.37,2013-01-20 08:21:00,
2013-01-20 00:22:00,47.7,9.6,30.06,East,82,0.0,0.0,21,0.00,CLR,,0.00,WeatherDisplay:10.37,2013-01-20 08:22:00,
2013-01-20 00:26:00,47.6,10.6,30.07,East,82,0.0,0.0,22,0.00,CLR,,0.00,WeatherDisplay:10.37,2013-01-20 08:26:00,
2013-01-20 00:27:00,47.4,10.4,30.07,East,82,0.0,0.0,22,0.00,CLR,,0.00,WeatherDisplay:10.37,2013-01-20 08:27:00,
2013-01-20 00:28:00,47.4,10.4,30.07,East,82,0.0,0.0,22,0.00,CLR,,0.00,WeatherDisplay:10.37,2013-01-20 08:28:00,
2013-01-20 00:29:00,47.3,10.3,30.06,East,82,0.0,0.0,22,0.00,CLR,,0.00,WeatherDisplay:10.37,2013-01-20 08:29:00,
2013-01-20 00:32:00,47.0,9.0,30.06,East,82,0.0,0.0,21,0.00,CLR,,0.00,WeatherDisplay:10.37,2013-01-20 08:32:00,
2013-01-20 00:33:00,46.8,9.9,30.06,East,82,1.1,0.0,22,0.00,CLR,,0.00,WeatherDisplay:10.37,2013-01-20 08:33:00,
2013-01-20 00:34:00,46.7,9.8,30.06,East,82,0.0,0.0,22,0.00,CLR,,0.00,WeatherDisplay:10.37,2013-01-20 08:34:00,
2013-01-20 00:36:00,46.5,9.6,30.06,East,82,0.0,0.0,22,0.00,CLR,,0.00,WeatherDisplay:10.37,2013-01-20 08:36:00,
2013-01-20 00:39:00,46.2,11.3,30.07,East,82,1.0,0.0,24,0.00,CLR,,0.00,WeatherDisplay:10.37,2013-01-20 08:39:00,
2013-01-20 00:40:00,46.2,10.4,30.07,East,82,1.1,0.0,23,0.00,CLR,,0.00,WeatherDisplay:10.37,2013-01-20 08:40:00,
2013-01-20 00:42:00,46.1,10.3,30.07,East,82,0.0,0.0,23,0.00,CLR,,0.00,WeatherDisplay:10.37,2013-01-20 08:42:00,
2013-01-20 00:44:00,45.8,11.9,30.07,East,82,0.0,0.0,25,0.00,CLR,,0.00,WeatherDisplay:10.37,2013-01-20 08:44:00,
2013-01-20 00:45:00,45.8,12.0,30.07,East,82,0.0,0.0,25,0.00,CLR,,0.00,WeatherDisplay:10.37,2013-01-20 08:45:00,
2013-01-20 00:46:00,45.7,10.9,30.07,East,82,0.0,0.0,24,0.00,CLR,,0.00,WeatherDisplay:10.37,2013-01-20 08:46:00,
2013-01-20 00:47:00,45.5,10.7,30.07,East,82,0.0,0.0,24,0.00,CLR,,0.00,WeatherDisplay:10.37,2013-01-20 08:47:00,
2013-01-20 00:50:00,45.2,12.3,30.07,East,82,0.0,0.0,26,0.00,CLR,,0.00,WeatherDisplay:10.37,2013-01-20 08:50:00,
2013-01-20 00:52:00,44.9,12.0,30.07,East,82,0.0,0.0,26,0.00,CLR,,0.00,WeatherDisplay:10.37,2013-01-20 08:52:00,
2013-01-20 00:53:00,44.9,12.9,30.07,East,82,0.0,0.0,27,0.00,CLR,,0.00,WeatherDisplay:10.37,2013-01-20 08:53:00,
2013-01-20 00:55:00,44.8,12.8,30.07,East,82,0.0,0.0,27,0.00,CLR,,0.00,WeatherDisplay:10.37,2013-01-20 08:55:00,
2013-01-20 00:57:00,44.3,11.5,30.07,East,82,0.0,0.0,26,0.00,CLR,,0.00,WeatherDisplay:10.37,2013-01-20 08:57:00,
2013-01-20 00:58:00,44.2,11.4,30.07,East,82,0.0,0.0,26,0.00,CLR,,0.00,WeatherDisplay:10.37,2013-01-20 08:58:00,
2013-01-20 01:00:00,44.1,11.3,30.07,East,82,0.0,0.0,26,0.00,CLR,,0.00,WeatherDisplay:10.37,2013-01-20 09:00:00,
2013-01-20 01:01:00,43.9,12.0,30.07,East,82,0.0,0.0,27,0.00,CLR,,0.00,WeatherDisplay:10.37,2013-01-20 09:01:00,
2013-01-20 01:03:00,43.8,11.9,30.07,East,82,0.0,0.0,27,0.00,CLR,,0.00,WeatherDisplay:10.37,2013-01-20 09:03:00,
2013-01-20 01:05:00,43.6,11.8,30.07,East,82,0.0,0.0,27,0.00,CLR,,0.00,WeatherDisplay:10.37,2013-01-20 09:05:00,
2013-01-20 01:06:00,43.6,10.9,30.07,East,82,0.0,0.0,26,0.00,CLR,,0.00,WeatherDisplay:10.37,2013-01-20 09:06:00,
2013-01-20 01:08:00,43.5,10.8,30.07,East,82,0.0,0.0,26,0.00,CLR,,0.00,WeatherDisplay:10.37,2013-01-20 09:08:00,
2013-01-20 01:10:00,43.5,9.9,30.07,East,82,0.0,0.0,25,0.00,CLR,,0.00,WeatherDisplay:10.37,2013-01-20 09:10:00,
2013-01-20 01:11:00,43.5,9.9,30.07,East,82,0.0,0.0,25,0.00,CLR,,0.00,WeatherDisplay:10.37,2013-01-20 09:11:00,
2013-01-20 01:12:00,43.5,9.9,30.07,East,82,0.0,0.0,25,0.00,CLR,,0.00,WeatherDisplay:10.37,2013-01-20 09:12:00,
2013-01-20 01:14:00,43.5,10.8,30.07,East,82,0.0,0.0,26,0.00,CLR,,0.00,WeatherDisplay:10.37,2013-01-20 09:14:00,
2013-01-20 01:16:00,43.3,9.8,30.07,East,82,0.0,0.0,25,0.00,CLR,,0.00,WeatherDisplay:10.37,2013-01-20 09:16:00,
2013-01-20 01:17:00,43.3,9.8,30.07,East,82,0.0,0.0,25,0.00,CLR,,0.00,WeatherDisplay:10.37,2013-01-20 09:17:00,
2013-01-20 01:18:00,43.3,10.7,30.07,East,82,0.0,0.0,26,0.00,CLR,,0.00,WeatherDisplay:10.37,2013-01-20 09:18:00,
2013-01-20 01:19:00,43.3,10.7,30.07,East,82,0.0,0.0,26,0.00,CLR,,0.00,WeatherDisplay:10.37,2013-01-20 09:19:00,
2013-01-20 01:21:00,43.3,10.7,30.07,East,82,0.0,0.0,26,0.00,CLR,,0.00,WeatherDisplay:10.37,2013-01-20 09:21:00,
2013-01-20 01:22:00,43.3,10.7,30.07,East,82,0.0,0.0,26,0.00,CLR,,0.00,WeatherDisplay:10.37,2013-01-20 09:22:00,
2013-01-20 01:24:00,43.2,10.6,30.07,East,82,0.0,0.0,26,0.00,CLR,,0.00,WeatherDisplay:10.37,2013-01-20 09:24:00,
2013-01-20 01:27:00,43.1,10.5,30.07,East,82,0.0,0.0,26,0.00,CLR,,0.00,WeatherDisplay:10.37,2013-01-20 09:27:00,
2013-01-20 01:29:00,43.2,10.6,30.07,East,82,0.0,0.0,26,0.00,CLR,,0.00,WeatherDisplay:10.37,2013-01-20 09:29:00,
2013-01-20 01:31:00,43.2,10.6,30.07,East,82,0.0,0.0,26,0.00,CLR,,0.00,WeatherDisplay:10.37,2013-01-20 09:31:00,
2013-01-20 01:34:00,43.3,9.8,30.07,East,82,0.0,0.0,25,0.00,CLR,,0.00,WeatherDisplay:10.37,2013-01-20 09:34:00,
2013-01-20 01:35:00,43.3,9.8,30.07,East,82,0.0,0.0,25,0.00,CLR,,0.00,WeatherDisplay:10.37,2013-01-20 09:35:00,
2013-01-20 01:36:00,43.5,9.9,30.07,East,82,0.0,0.0,25,0.00,CLR,,0.00,WeatherDisplay:10.37,2013-01-20 09:36:00,
2013-01-20 01:40:00,43.8,9.3,30.07,ENE,75,0.0,0.0,24,0.00,CLR,,0.00,WeatherDisplay:10.37,2013-01-20 09:40:00,
2013-01-20 01:41:00,43.9,9.4,30.07,ENE,65,0.0,0.0,24,0.00,CLR,,0.00,WeatherDisplay:10.37,2013-01-20 09:41:00,
2013-01-20 01:42:00,44.1,9.5,30.07,ENE,65,0.0,0.0,24,0.00,CLR,,0.00,WeatherDisplay:10.37,2013-01-20 09:42:00,
2013-01-20 01:45:00,44.2,9.6,30.07,ENE,69,0.0,0.0,24,0.00,CLR,,0.00,WeatherDisplay:10.37,2013-01-20 09:45:00,
2013-01-20 01:46:00,44.2,9.6,30.07,ENE,65,0.0,0.0,24,0.00,CLR,,0.00,WeatherDisplay:10.37,2013-01-20 09:46:00,
2013-01-20 01:47:00,44.2,9.6,30.07,ENE,65,0.0,0.0,24,0.00,CLR,,0.00,WeatherDisplay:10.37,2013-01-20 09:47:00,
2013-01-20 01:48:00,44.3,9.7,30.07,ENE,65,0.0,0.0,24,0.00,CLR,,0.00,WeatherDisplay:10.37,2013-01-20 09:48:00,
2013-01-20 01:51:00,44.3,9.7,30.07,ENE,65,0.0,0.0,24,0.00,CLR,,0.00,WeatherDisplay:10.37,2013-01-20 09:51:00,
2013-01-20 01:53:00,44.2,10.5,30.07,ENE,65,0.0,0.0,25,0.00,CLR,,0.00,WeatherDisplay:10.37,2013-01-20 09:53:00,
2013-01-20 01:54:00,44.2,10.5,30.07,ENE,65,0.0,0.0,25,0.00,CLR,,0.00,WeatherDisplay:10.37,2013-01-20 09:54:00,
2013-01-20 01:57:00,43.9,10.3,30.07,ENE,65,0.0,0.0,25,0.00,CLR,,0.00,WeatherDisplay:10.37,2013-01-20 09:57:00,
2013-01-20 01:58:00,43.9,10.3,30.07,ENE,65,0.0,0.0,25,0.00,CLR,,0.00,WeatherDisplay:10.37,2013-01-20 09:58:00,
2013-01-20 02:00:00,43.8,11.1,30.07,ENE,65,0.0,0.0,26,0.00,CLR,,0.00,WeatherDisplay:10.37,2013-01-20 10:00:00,
2013-01-20 02:03:00,43.3,10.7,30.07,ENE,65,0.0,0.0,26,0.00,CLR,,0.00,WeatherDisplay:10.37,2013-01-20 10:03:00,
2013-01-20 02:04:00,43.3,11.5,30.06,ENE,65,0.0,0.0,27,0.00,CLR,,0.00,WeatherDisplay:10.37,2013-01-20 10:04:00,
2013-01-20 02:05:00,43.2,11.4,30.06,ENE,65,0.0,0.0,27,0.00,CLR,,0.00,WeatherDisplay:10.37,2013-01-20 10:05:00,
2013-01-20 02:06:00,42.9,11.2,30.06,ENE,65,0.0,0.0,27,0.00,CLR,,0.00,WeatherDisplay:10.37,2013-01-20 10:06:00,
2013-01-20 02:09:00,42.6,10.9,30.06,ENE,65,0.0,0.0,27,0.00,CLR,,0.00,WeatherDisplay:10.37,2013-01-20 10:09:00,
2013-01-20 02:10:00,42.6,10.9,30.06,ENE,65,0.0,0.0,27,0.00,CLR,,0.00,WeatherDisplay:10.37,2013-01-20 10:10:00,
2013-01-20 02:15:00,42.2,11.4,30.06,ENE,65,0.0,0.0,28,0.00,CLR,,0.00,WeatherDisplay:10.37,2013-01-20 10:15:00,
2013-01-20 02:17:00,42.1,11.3,30.06,ENE,65,0.0,0.0,28,0.00,CLR,,0.00,WeatherDisplay:10.37,2013-01-20 10:17:00,
2013-01-20 02:20:00,41.9,11.1,30.06,ENE,65,0.0,0.0,28,0.00,CLR,,0.00,WeatherDisplay:10.37,2013-01-20 10:20:00,
2013-01-20 02:21:00,41.8,11.0,30.06,ENE,65,0.0,0.0,28,0.00,CLR,,0.00,WeatherDisplay:10.37,2013-01-20 10:21:00,
2013-01-20 02:22:00,41.8,11.0,30.06,ENE,65,0.0,0.0,28,0.00,CLR,,0.00,WeatherDisplay:10.37,2013-01-20 10:22:00,
2013-01-20 02:23:00,41.8,11.0,30.06,ENE,65,0.0,0.0,28,0.00,CLR,,0.00,WeatherDisplay:10.37,2013-01-20 10:23:00,
2013-01-20 02:25:00,41.6,10.9,30.06,ENE,65,0.0,0.0,28,0.00,CLR,,0.00,WeatherDisplay:10.37,2013-01-20 10:25:00,
2013-01-20 02:26:00,41.6,10.0,30.06,ENE,65,0.0,0.0,27,0.00,CLR,,0.00,WeatherDisplay:10.37,2013-01-20 10:26:00,
2013-01-20 02:28:00,41.6,10.9,30.06,ENE,65,0.0,0.0,28,0.00,CLR,,0.00,WeatherDisplay:10.37,2013-01-20 10:28:00,
2013-01-20 02:30:00,41.6,10.9,30.06,ENE,65,0.0,0.0,28,0.00,CLR,,0.00,WeatherDisplay:10.37,2013-01-20 10:30:00,
2013-01-20 02:31:00,41.5,10.8,30.06,ENE,65,0.0,0.0,28,0.00,CLR,,0.00,WeatherDisplay:10.37,2013-01-20 10:31:00,
2013-01-20 02:34:00,41.5,10.8,30.06,ENE,65,0.0,0.0,28,0.00,CLR,,0.00,WeatherDisplay:10.37,2013-01-20 10:34:00,
2013-01-20 02:35:00,41.4,10.7,30.06,ENE,65,0.0,0.0,28,0.00,CLR,,0.00,WeatherDisplay:10.37,2013-01-20 10:35:00,
2013-01-20 02:36:00,41.3,10.6,30.06,ENE,65,0.0,0.0,28,0.00,CLR,,0.00,WeatherDisplay:10.37,2013-01-20 10:36:00,
2013-01-20 02:37:00,41.3,10.6,30.06,ENE,65,0.0,0.0,28,0.00,CLR,,0.00,WeatherDisplay:10.37,2013-01-20 10:37:00,
2013-01-20 02:39:00,41.3,9.8,30.05,ENE,65,0.0,0.0,27,0.00,CLR,,0.00,WeatherDisplay:10.37,2013-01-20 10:39:00,
2013-01-20 02:40:00,41.3,9.8,30.05,ENE,65,0.0,0.0,27,0.00,CLR,,0.00,WeatherDisplay:10.37,2013-01-20 10:40:00,
2013-01-20 02:42:00,41.2,11.3,30.05,ENE,65,0.0,0.0,29,0.00,CLR,,0.00,WeatherDisplay:10.37,2013-01-20 10:42:00,
2013-01-20 02:45:00,41.2,12.1,30.05,ENE,65,0.0,0.0,30,0.00,CLR,,0.00,WeatherDisplay:10.37,2013-01-20 10:45:00,
2013-01-20 02:48:00,41.1,12.7,30.05,ENE,65,0.0,0.0,31,0.00,CLR,,0.00,WeatherDisplay:10.37,2013-01-20 10:48:00,
2013-01-20 02:50:00,41.1,12.0,30.05,ENE,65,0.0,0.0,30,0.00,CLR,,0.00,WeatherDisplay:10.37,2013-01-20 10:50:00,
2013-01-20 02:52:00,40.9,12.5,30.05,ENE,65,0.0,0.0,31,0.00,CLR,,0.00,WeatherDisplay:10.37,2013-01-20 10:52:00,
2013-01-20 02:53:00,40.9,12.5,30.05,ENE,65,0.0,0.0,31,0.00,CLR,,0.00,WeatherDisplay:10.37,2013-01-20 10:53:00,
2013-01-20 02:56:00,40.8,12.5,30.04,ENE,65,0.0,0.0,31,0.00,CLR,,0.00,WeatherDisplay:10.37,2013-01-20 10:56:00,
2013-01-20 02:58:00,40.6,12.3,30.04,ENE,65,0.0,0.0,31,0.00,CLR,,0.00,WeatherDisplay:10.37,2013-01-20 10:58:00,
2013-01-20 02:59:00,40.5,12.2,30.04,ENE,65,0.0,0.0,31,0.00,CLR,,0.00,WeatherDisplay:10.37,2013-01-20 10:59:00,
2013-01-20 03:01:00,40.5,12.9,30.04,ENE,65,0.0,0.0,32,0.00,CLR,,0.00,WeatherDisplay:10.37,2013-01-20 11:01:00,
2013-01-20 03:02:00,40.5,12.9,30.04,ENE,65,0.0,0.0,32,0.00,CLR,,0.00,WeatherDisplay:10.37,2013-01-20 11:02:00,
2013-01-20 03:04:00,40.3,12.0,30.05,ENE,65,0.0,0.0,31,0.00,CLR,,0.00,WeatherDisplay:10.37,2013-01-20 11:04:00,
2013-01-20 03:07:00,40.2,11.9,30.04,ENE,65,0.0,0.0,31,0.00,CLR,,0.00,WeatherDisplay:10.37,2013-01-20 11:07:00,
2013-01-20 03:09:00,40.2,11.9,30.04,ENE,65,0.0,0.0,31,0.00,CLR,,0.00,WeatherDisplay:10.37,2013-01-20 11:09:00,
2013-01-20 03:10:00,40.2,11.9,30.04,ENE,65,0.0,0.0,31,0.00,CLR,,0.00,WeatherDisplay:10.37,2013-01-20 11:10:00,
2013-01-20 03:12:00,40.2,11.2,30.04,ENE,65,0.0,0.0,30,0.00,CLR,,0.00,WeatherDisplay:10.37,2013-01-20 11:12:00,
2013-01-20 03:13:00,40.3,11.3,30.04,ENE,65,0.0,0.0,30,0.00,CLR,,0.00,WeatherDisplay:10.37,2013-01-20 11:13:00,
2013-01-20 03:15:00,40.5,9.9,30.04,ENE,65,0.0,0.0,28,0.00,CLR,,0.00,WeatherDisplay:10.37,2013-01-20 11:15:00,
2013-01-20 03:18:00,41.1,9.6,30.04,ENE,65,0.0,0.0,27,0.00,CLR,,0.00,WeatherDisplay:10.37,2013-01-20 11:18:00,
2013-01-20 03:19:00,41.1,9.6,30.04,ENE,65,0.0,0.0,27,0.00,CLR,,0.00,WeatherDisplay:10.37,2013-01-20 11:19:00,
2013-01-20 03:20:00,41.2,10.5,30.04,ENE,65,0.0,0.0,28,0.00,CLR,,0.00,WeatherDisplay:10.37,2013-01-20 11:20:00,
2013-01-20 03:21:00,41.3,10.6,30.04,ENE,65,0.0,0.0,28,0.00,CLR,,0.00,WeatherDisplay:10.37,2013-01-20 11:21:00,
2013-01-20 03:25:00,41.5,9.9,30.04,ENE,65,0.0,0.0,27,0.00,CLR,,0.00,WeatherDisplay:10.37,2013-01-20 11:25:00,
2013-01-20 03:26:00,41.6,10.0,30.04,ENE,65,0.0,0.0,27,0.00,CLR,,0.00,WeatherDisplay:10.37,2013-01-20 11:26:00,
2013-01-20 03:27:00,41.6,10.9,30.04,ENE,65,0.0,0.0,28,0.00,CLR,,0.00,WeatherDisplay:10.37,2013-01-20 11:27:00,
2013-01-20 03:30:00,41.6,10.9,30.04,ENE,65,0.0,0.0,28,0.00,CLR,,0.00,WeatherDisplay:10.37,2013-01-20 11:30:00,
2013-01-20 03:32:00,41.6,11.6,30.04,ENE,65,0.0,0.0,29,0.00,CLR,,0.00,WeatherDisplay:10.37,2013-01-20 11:32:00,
2013-01-20 03:36:00,41.5,11.6,30.04,ENE,65,0.0,0.0,29,0.00,CLR,,0.00,WeatherDisplay:10.37,2013-01-20 11:36:00,
2013-01-20 03:37:00,41.5,11.6,30.04,ENE,65,0.0,0.0,29,0.00,CLR,,0.00,WeatherDisplay:10.37,2013-01-20 11:37:00,
2013-01-20 03:38:00,41.3,11.4,30.05,ENE,65,0.0,0.0,29,0.00,CLR,,0.00,WeatherDisplay:10.37,2013-01-20 11:38:00,
2013-01-20 03:41:00,41.2,12.1,30.05,ENE,65,0.0,0.0,30,0.00,CLR,,0.00,WeatherDisplay:10.37,2013-01-20 11:41:00,
2013-01-20 03:43:00,41.1,12.0,30.05,ENE,65,0.0,0.0,30,0.00,CLR,,0.00,WeatherDisplay:10.37,2013-01-20 11:43:00,
2013-01-20 03:46:00,40.9,12.5,30.05,ENE,65,0.0,0.0,31,0.00,CLR,,0.00,WeatherDisplay:10.37,2013-01-20 11:46:00,
2013-01-20 03:48:00,40.8,12.5,30.05,ENE,65,0.0,0.0,31,0.00,CLR,,0.00,WeatherDisplay:10.37,2013-01-20 11:48:00,
2013-01-20 03:49:00,40.6,12.3,30.05,ENE,65,0.0,0.0,31,0.00,CLR,,0.00,WeatherDisplay:10.37,2013-01-20 11:49:00,
2013-01-20 03:52:00,40.5,12.2,30.05,ENE,65,0.0,0.0,31,0.00,CLR,,0.00,WeatherDisplay:10.37,2013-01-20 11:52:00,
2013-01-20 03:55:00,40.1,12.6,30.05,ENE,65,0.0,0.0,32,0.00,CLR,,0.00,WeatherDisplay:10.37,2013-01-20 11:55:00,
2013-01-20 03:57:00,39.8,14.3,30.05,ENE,65,0.0,0.0,35,0.00,CLR,,0.00,WeatherDisplay:10.37,2013-01-20 11:57:00,
2013-01-20 04:00:00,39.6,14.1,30.05,ENE,65,0.0,0.0,35,0.00,CLR,,0.00,WeatherDisplay:10.37,2013-01-20 12:00:00,
2013-01-20 04:03:00,39.2,14.4,30.05,ENE,65,0.0,0.0,36,0.00,CLR,,0.00,WeatherDisplay:10.37,2013-01-20 12:03:00,
2013-01-20 04:05:00,39.1,13.7,30.05,ENE,65,0.0,0.0,35,0.00,CLR,,0.00,WeatherDisplay:10.37,2013-01-20 12:05:00,
2013-01-20 04:06:00,38.9,14.2,30.05,ENE,65,0.0,0.0,36,0.00,CLR,,0.00,WeatherDisplay:10.37,2013-01-20 12:06:00,
2013-01-20 04:08:00,38.6,14.5,30.05,ENE,65,0.0,0.0,37,0.00,CLR,,0.00,WeatherDisplay:10.37,2013-01-20 12:08:00,
2013-01-20 04:11:00,38.5,13.8,30.05,ENE,65,0.0,0.0,36,0.00,CLR,,0.00,WeatherDisplay:10.37,2013-01-20 12:11:00,
2013-01-20 04:13:00,38.3,14.3,30.05,ENE,65,0.0,0.0,37,0.00,CLR,,0.00,WeatherDisplay:10.37,2013-01-20 12:13:00,
2013-01-20 04:14:00,38.3,14.9,30.05,ENE,65,0.0,0.0,38,0.00,CLR,,0.00,WeatherDisplay:10.37,2013-01-20 12:14:00,
2013-01-20 04:17:00,38.0,14.6,30.05,ENE,65,0.0,0.0,38,0.00,CLR,,0.00,WeatherDisplay:10.37,2013-01-20 12:17:00,
2013-01-20 04:20:00,37.9,15.1,30.05,ENE,65,0.0,0.0,39,0.00,CLR,,0.00,WeatherDisplay:10.37,2013-01-20 12:20:00,
2013-01-20 04:22:00,37.8,15.6,30.05,ENE,65,0.0,0.0,40,0.00,CLR,,0.00,WeatherDisplay:10.37,2013-01-20 12:22:00,
2013-01-20 04:25:00,37.7,15.5,30.05,ENE,65,0.0,0.0,40,0.00,CLR,,0.00,WeatherDisplay:10.37,2013-01-20 12:25:00,
2013-01-20 04:28:00,37.5,15.3,30.05,ENE,65,0.0,0.0,40,0.00,CLR,,0.00,WeatherDisplay:10.37,2013-01-20 12:28:00,
2013-01-20 04:30:00,37.3,15.2,30.07,ENE,65,0.0,0.0,40,0.00,CLR,,0.00,WeatherDisplay:10.37,2013-01-20 12:30:00,
2013-01-20 04:34:00,37.2,15.6,30.07,ENE,65,0.0,0.0,41,0.00,CLR,,0.00,WeatherDisplay:10.37,2013-01-20 12:34:00,
2013-01-20 04:35:00,37.2,15.6,30.07,ENE,65,0.0,0.0,41,0.00,CLR,,0.00,WeatherDisplay:10.37,2013-01-20 12:35:00,
2013-01-20 04:38:00,36.9,15.9,30.06,ENE,65,0.0,0.0,42,0.00,CLR,,0.00,WeatherDisplay:10.37,2013-01-20 12:38:00,
2013-01-20 04:39:00,36.9,15.4,30.06,ENE,65,0.0,0.0,41,0.00,CLR,,0.00,WeatherDisplay:10.37,2013-01-20 12:39:00,
2013-01-20 04:40:00,36.9,15.4,30.06,ENE,65,0.0,0.0,41,0.00,CLR,,0.00,WeatherDisplay:10.37,2013-01-20 12:40:00,
2013-01-20 04:41:00,36.8,15.3,30.06,ENE,65,0.0,0.0,41,0.00,CLR,,0.00,WeatherDisplay:10.37,2013-01-20 12:41:00,
2013-01-20 04:44:00,36.6,15.1,30.07,ENE,65,0.0,0.0,41,0.00,CLR,,0.00,WeatherDisplay:10.37,2013-01-20 12:44:00,
2013-01-20 04:45:00,36.6,15.1,30.07,ENE,65,0.0,0.0,41,0.00,CLR,,0.00,WeatherDisplay:10.37,2013-01-20 12:45:00,
2013-01-20 04:47:00,36.3,15.4,30.07,ENE,65,0.0,0.0,42,0.00,CLR,,0.00,WeatherDisplay:10.37,2013-01-20 12:47:00,
2013-01-20 04:49:00,36.3,15.4,30.07,ENE,65,0.0,0.0,42,0.00,CLR,,0.00,WeatherDisplay:10.37,2013-01-20 12:49:00,
2013-01-20 04:50:00,36.2,15.3,30.07,ENE,65,0.0,0.0,42,0.00,CLR,,0.00,WeatherDisplay:10.37,2013-01-20 12:50:00,
2013-01-20 04:51:00,36.2,15.3,30.07,ENE,65,0.0,0.0,42,0.00,CLR,,0.00,WeatherDisplay:10.37,2013-01-20 12:51:00,
2013-01-20 04:54:00,36.0,15.1,30.07,ENE,65,0.0,0.0,42,0.00,CLR,,0.00,WeatherDisplay:10.37,2013-01-20 12:54:00,
2013-01-20 04:55:00,36.0,15.6,30.07,ENE,65,0.0,0.0,43,0.00,CLR,,0.00,WeatherDisplay:10.37,2013-01-20 12:55:00,
2013-01-20 04:58:00,35.9,15.0,30.07,ENE,65,0.0,0.0,42,0.00,CLR,,0.00,WeatherDisplay:10.37,2013-01-20 12:58:00,
2013-01-20 04:59:00,35.9,15.0,30.07,ENE,65,0.0,0.0,42,0.00,CLR,,0.00,WeatherDisplay:10.37,2013-01-20 12:59:00,
2013-01-20 05:00:00,35.9,15.0,30.07,ENE,65,0.0,0.0,42,0.00,CLR,,0.00,WeatherDisplay:10.37,2013-01-20 13:00:00,
2013-01-20 05:01:00,35.9,14.5,30.07,ENE,65,0.0,0.0,41,0.00,CLR,,0.00,WeatherDisplay:10.37,2013-01-20 13:01:00,
2013-01-20 05:03:00,35.8,14.9,30.07,ENE,65,0.0,0.0,42,0.00,CLR,,0.00,WeatherDisplay:10.37,2013-01-20 13:03:00,
2013-01-20 05:04:00,35.8,14.4,30.07,ENE,65,0.0,0.0,41,0.00,CLR,,0.00,WeatherDisplay:10.37,2013-01-20 13:04:00,
2013-01-20 05:05:00,35.8,14.4,30.07,ENE,65,0.0,0.0,41,0.00,CLR,,0.00,WeatherDisplay:10.37,2013-01-20 13:05:00,
2013-01-20 05:09:00,35.9,15.0,30.07,ENE,65,0.0,0.0,42,0.00,CLR,,0.00,WeatherDisplay:10.37,2013-01-20 13:09:00,
2013-01-20 05:10:00,35.9,14.5,30.07,ENE,65,0.0,0.0,41,0.00,CLR,,0.00,WeatherDisplay:10.37,2013-01-20 13:10:00,
2013-01-20 05:12:00,35.9,14.5,30.07,ENE,65,0.0,0.0,41,0.00,CLR,,0.00,WeatherDisplay:10.37,2013-01-20 13:12:00,
2013-01-20 05:15:00,36.0,14.0,30.07,ENE,65,0.0,0.0,40,0.00,CLR,,0.00,WeatherDisplay:10.37,2013-01-20 13:15:00,
2013-01-20 05:17:00,36.2,14.2,30.07,ENE,65,0.0,0.0,40,0.00,CLR,,0.00,WeatherDisplay:10.37,2013-01-20 13:17:00,
2013-01-20 05:20:00,36.3,13.1,30.07,ENE,65,0.0,0.0,38,0.00,CLR,,0.00,WeatherDisplay:10.37,2013-01-20 13:20:00,
2013-01-20 05:25:00,36.8,13.5,30.07,ENE,65,0.0,0.0,38,0.00,CLR,,0.00,WeatherDisplay:10.37,2013-01-20 13:25:00,
2013-01-20 05:26:00,36.9,13.6,30.07,ENE,65,0.0,0.0,38,0.00,CLR,,0.00,WeatherDisplay:10.37,2013-01-20 13:26:00,
2013-01-20 05:27:00,37.0,13.1,30.07,ENE,65,0.0,0.0,37,0.00,CLR,,0.00,WeatherDisplay:10.37,2013-01-20 13:27:00,
2013-01-20 05:30:00,37.5,13.6,30.08,ENE,65,0.0,0.0,37,0.00,CLR,,0.00,WeatherDisplay:10.37,2013-01-20 13:30:00,
2013-01-20 05:33:00,37.6,12.4,30.08,ENE,65,0.0,0.0,35,0.00,CLR,,0.00,WeatherDisplay:10.37,2013-01-20 13:33:00,
2013-01-20 05:35:00,37.8,13.2,30.08,ENE,65,0.0,0.0,36,0.00,CLR,,0.00,WeatherDisplay:10.37,2013-01-20 13:35:00,
2013-01-20 05:36:00,37.9,13.9,30.08,ENE,65,0.0,0.0,37,0.00,CLR,,0.00,WeatherDisplay:10.37,2013-01-20 13:36:00,
2013-01-20 05:38:00,37.9,13.9,30.08,ENE,65,0.0,0.0,37,0.00,CLR,,0.00,WeatherDisplay:10.37,2013-01-20 13:38:00,
2013-01-20 05:41:00,37.9,13.9,30.08,ENE,65,0.0,0.0,37,0.00,CLR,,0.00,WeatherDisplay:10.37,2013-01-20 13:41:00,
2013-01-20 05:44:00,37.9,13.9,30.08,ENE,65,0.0,0.0,37,0.00,CLR,,0.00,WeatherDisplay:10.37,2013-01-20 13:44:00,
2013-01-20 05:46:00,37.9,13.9,30.08,ENE,65,0.0,0.0,37,0.00,CLR,,0.00,WeatherDisplay:10.37,2013-01-20 13:46:00,
2013-01-20 05:47:00,37.9,13.9,30.08,ENE,65,0.0,0.0,37,0.00,CLR,,0.00,WeatherDisplay:10.37,2013-01-20 13:47:00,
2013-01-20 05:49:00,37.9,13.9,30.03,North,3,255.3,255.3,37,0.00,CLR,,0.00,WeatherDisplay:10.37,2013-01-20 13:49:00,
2013-01-20 05:52:00,37.9,13.9,30.03,North,0,255.3,0.0,37,0.00,CLR,,0.00,WeatherDisplay:10.37,2013-01-20 13:52:00,
2013-01-20 05:54:00,37.9,13.9,30.03,North,0,255.3,0.0,37,0.00,CLR,,0.00,WeatherDisplay:10.37,2013-01-20 13:54:00,
2013-01-20 05:57:00,37.9,13.9,30.03,North,0,255.3,0.0,37,0.00,CLR,,0.00,WeatherDisplay:10.37,2013-01-20 13:57:00,
2013-01-20 05:58:00,37.9,13.9,30.04,North,0,255.3,0.0,37,0.00,CLR,,0.00,WeatherDisplay:10.37,2013-01-20 13:58:00,
2013-01-20 06:00:00,37.9,13.9,30.04,North,0,255.3,0.0,37,0.00,CLR,,0.00,WeatherDisplay:10.37,2013-01-20 14:00:00,
2013-01-20 06:02:00,37.9,13.9,30.03,North,0,255.3,0.0,37,0.00,CLR,,0.00,WeatherDisplay:10.37,2013-01-20 14:02:00,
2013-01-20 06:05:00,37.9,13.9,30.03,North,0,255.3,0.0,37,0.00,CLR,,0.00,WeatherDisplay:10.37,2013-01-20 14:05:00,
2013-01-20 06:06:00,37.9,13.9,30.03,North,0,255.3,0.0,37,0.00,CLR,,0.00,WeatherDisplay:10.37,2013-01-20 14:06:00,
2013-01-20 06:07:00,37.9,13.9,30.03,North,0,255.3,0.0,37,0.00,CLR,,0.00,WeatherDisplay:10.37,2013-01-20 14:07:00,
2013-01-20 06:08:00,37.9,13.9,30.03,North,0,255.3,0.0,37,0.00,CLR,,0.00,WeatherDisplay:10.37,2013-01-20 14:08:00,
2013-01-20 06:11:00,37.9,13.9,30.03,North,0,255.3,0.0,37,0.00,CLR,,0.00,WeatherDisplay:10.37,2013-01-20 14:11:00,
2013-01-20 06:12:00,37.9,13.9,30.03,North,0,255.3,0.0,37,0.00,CLR,,0.00,WeatherDisplay:10.37,2013-01-20 14:12:00,
2013-01-20 06:13:00,37.9,13.9,30.03,North,0,255.3,0.0,37,0.00,CLR,,0.00,WeatherDisplay:10.37,2013-01-20 14:13:00,
2013-01-20 06:15:00,37.9,13.9,30.03,North,0,0.0,255.0,37,0.00,CLR,,0.00,WeatherDisplay:10.37,2013-01-20 14:15:00,
2013-01-20 06:16:00,37.9,13.9,30.03,North,0,255.3,0.0,37,0.00,CLR,,0.00,WeatherDisplay:10.37,2013-01-20 14:16:00,
2013-01-20 06:17:00,37.9,13.9,30.03,North,0,255.3,0.0,37,0.00,CLR,,0.00,WeatherDisplay:10.37,2013-01-20 14:17:00,
2013-01-20 06:18:00,37.9,13.9,30.03,North,0,255.3,0.0,37,0.00,CLR,,0.00,WeatherDisplay:10.37,2013-01-20 14:18:00,
2013-01-20 06:20:00,37.9,13.9,30.03,North,0,255.3,0.0,37,0.00,CLR,,0.00,WeatherDisplay:10.37,2013-01-20 14:20:00,
2013-01-20 06:22:00,37.9,13.9,30.03,North,0,255.3,0.0,37,0.00,CLR,,0.00,WeatherDisplay:10.37,2013-01-20 14:22:00,
2013-01-20 06:24:00,37.9,13.9,30.03,North,0,255.3,0.0,37,0.00,CLR,,0.00,WeatherDisplay:10.37,2013-01-20 14:24:00,
2013-01-20 06:26:00,37.9,13.9,30.03,North,0,255.3,0.0,37,0.00,CLR,,0.00,WeatherDisplay:10.37,2013-01-20 14:26:00,
2013-01-20 06:27:00,37.9,13.9,30.04,North,0,255.3,0.0,37,0.00,CLR,,0.00,WeatherDisplay:10.37,2013-01-20 14:27:00,
2013-01-20 06:30:00,37.9,13.9,30.04,North,0,255.3,0.0,37,0.00,CLR,,0.00,WeatherDisplay:10.37,2013-01-20 14:30:00,
2013-01-20 06:32:00,37.9,13.9,30.04,North,0,255.3,0.0,37,0.00,CLR,,0.00,WeatherDisplay:10.37,2013-01-20 14:32:00,
2013-01-20 06:36:00,37.9,13.9,30.04,North,0,255.3,0.0,37,0.00,CLR,,0.00,WeatherDisplay:10.37,2013-01-20 14:36:00,
2013-01-20 06:37:00,37.9,13.9,30.04,North,0,255.3,0.0,37,0.00,CLR,,0.00,WeatherDisplay:10.37,2013-01-20 14:37:00,
2013-01-20 06:40:00,37.9,13.9,30.04,North,2,0.0,255.0,37,0.00,CLR,,0.00,WeatherDisplay:10.37,2013-01-20 14:40:00,
2013-01-20 06:42:00,37.9,13.9,30.04,North,0,255.3,0.0,37,0.00,CLR,,0.00,WeatherDisplay:10.37,2013-01-20 14:42:00,
2013-01-20 06:45:00,37.9,13.9,30.04,North,1,0.0,255.0,37,0.00,CLR,,0.00,WeatherDisplay:10.37,2013-01-20 14:45:00,
2013-01-20 06:47:00,37.9,13.9,30.04,North,0,255.3,0.0,37,0.00,CLR,,0.00,WeatherDisplay:10.37,2013-01-20 14:47:00,
2013-01-20 06:49:00,37.9,13.9,30.04,North,0,255.3,0.0,37,0.00,CLR,,0.00,WeatherDisplay:10.37,2013-01-20 14:49:00,
2013-01-20 06:52:00,37.9,13.9,30.04,North,0,255.3,0.0,37,0.00,CLR,,0.00,WeatherDisplay:10.37,2013-01-20 14:52:00,
2013-01-20 06:53:00,37.9,13.9,30.04,North,0,255.3,0.0,37,0.00,CLR,,0.00,WeatherDisplay:10.37,2013-01-20 14:53:00,
2013-01-20 06:54:00,37.9,13.9,30.04,North,0,255.3,0.0,37,0.00,CLR,,0.00,WeatherDisplay:10.37,2013-01-20 14:54:00,
2013-01-20 06:55:00,37.9,13.9,30.04,North,1,0.0,255.0,37,0.00,CLR,,0.00,WeatherDisplay:10.37,2013-01-20 14:55:00,
2013-01-20 06:58:00,37.9,13.9,30.04,North,0,255.3,0.0,37,0.00,CLR,,0.00,WeatherDisplay:10.37,2013-01-20 14:58:00,
2013-01-20 06:59:00,37.9,13.9,30.04,North,0,255.3,0.0,37,0.00,CLR,,0.00,WeatherDisplay:10.37,2013-01-20 14:59:00,
2013-01-20 07:00:00,37.9,13.9,30.04,North,0,255.3,0.0,37,0.00,CLR,,0.00,WeatherDisplay:10.37,2013-01-20 15:00:00,
2013-01-20 07:01:00,37.9,13.9,30.04,North,0,255.3,0.0,37,0.00,CLR,,0.00,WeatherDisplay:10.37,2013-01-20 15:01:00,
2013-01-20 07:05:00,37.9,13.9,30.04,North,2,0.0,255.0,37,0.00,CLR,,0.00,WeatherDisplay:10.37,2013-01-20 15:05:00,
2013-01-20 07:09:00,37.9,13.9,30.04,North,0,255.3,0.0,37,0.00,CLR,,0.00,WeatherDisplay:10.37,2013-01-20 15:09:00,
2013-01-20 07:10:00,37.9,13.9,30.04,North,0,255.3,0.0,37,0.00,CLR,,0.00,WeatherDisplay:10.37,2013-01-20 15:10:00,
2013-01-20 07:11:00,37.9,13.9,30.04,North,0,255.3,0.0,37,0.00,CLR,,0.00,WeatherDisplay:10.37,2013-01-20 15:11:00,
2013-01-20 07:14:00,37.9,13.9,30.04,North,0,255.3,0.0,37,0.00,CLR,,0.00,WeatherDisplay:10.37,2013-01-20 15:14:00,
2013-01-20 07:16:00,37.9,13.9,30.04,North,0,255.3,0.0,37,0.00,CLR,,0.00,WeatherDisplay:10.37,2013-01-20 15:16:00,
2013-01-20 07:17:00,37.9,13.9,30.04,North,0,255.3,0.0,37,0.00,CLR,,0.00,WeatherDisplay:10.37,2013-01-20 15:17:00,
2013-01-20 07:20:00,37.9,13.9,30.04,North,0,255.3,0.0,37,0.00,CLR,,0.00,WeatherDisplay:10.37,2013-01-20 15:20:00,
2013-01-20 07:23:00,37.9,13.9,30.05,North,0,255.3,0.0,37,0.00,CLR,,0.00,WeatherDisplay:10.37,2013-01-20 15:23:00,
2013-01-20 07:24:00,37.9,13.9,30.05,North,0,255.3,0.0,37,0.00,CLR,,0.00,WeatherDisplay:10.37,2013-01-20 15:24:00,
2013-01-20 07:25:00,37.9,13.9,30.05,North,2,0.0,255.0,37,0.00,CLR,,0.00,WeatherDisplay:10.37,2013-01-20 15:25:00,
2013-01-20 07:27:00,37.9,13.9,30.05,North,0,255.3,0.0,37,0.00,CLR,,0.00,WeatherDisplay:10.37,2013-01-20 15:27:00,
2013-01-20 07:30:00,37.3,14.0,30.10,ENE,65,255.3,255.3,38,0.00,CLR,,0.00,WeatherDisplay:10.37,2013-01-20 15:30:00,
2013-01-20 07:31:00,37.3,14.0,30.10,ENE,65,0.0,0.0,38,0.00,CLR,,0.00,WeatherDisplay:10.37,2013-01-20 15:31:00,
2013-01-20 07:32:00,37.3,14.0,30.10,ENE,65,0.0,0.0,38,0.00,CLR,,0.00,WeatherDisplay:10.37,2013-01-20 15:32:00,
2013-01-20 07:35:00,37.5,13.6,30.09,ENE,65,0.0,0.0,37,0.00,CLR,,0.00,WeatherDisplay:10.37,2013-01-20 15:35:00,
2013-01-20 07:37:00,37.6,13.0,30.09,ENE,65,0.0,0.0,36,0.00,CLR,,0.00,WeatherDisplay:10.37,2013-01-20 15:37:00,
2013-01-20 07:38:00,37.6,14.2,30.09,ENE,65,0.0,0.0,38,0.00,CLR,,0.00,WeatherDisplay:10.37,2013-01-20 15:38:00,
2013-01-20 07:41:00,38.2,13.6,30.09,ENE,65,0.0,0.0,36,0.00,CLR,,0.00,WeatherDisplay:10.37,2013-01-20 15:41:00,
2013-01-20 07:42:00,38.5,13.2,30.09,ENE,65,0.0,0.0,35,0.00,CLR,,0.00,WeatherDisplay:10.37,2013-01-20 15:42:00,
2013-01-20 07:43:00,38.6,13.3,30.09,ENE,65,0.0,0.0,35,0.00,CLR,,0.00,WeatherDisplay:10.37,2013-01-20 15:43:00,
2013-01-20 07:44:00,38.9,13.5,30.09,ENE,65,0.0,0.0,35,0.00,CLR,,0.00,WeatherDisplay:10.37,2013-01-20 15:44:00,
2013-01-20 07:46:00,39.3,13.9,30.09,ENE,65,0.0,0.0,35,0.00,CLR,,0.00,WeatherDisplay:10.37,2013-01-20 15:46:00,
2013-01-20 07:47:00,39.8,13.0,30.09,ENE,65,0.0,0.0,33,0.00,CLR,,0.00,WeatherDisplay:10.37,2013-01-20 15:47:00,
2013-01-20 07:49:00,40.1,13.3,30.09,ENE,65,0.0,0.0,33,0.00,CLR,,0.00,WeatherDisplay:10.37,2013-01-20 15:49:00,
2013-01-20 07:51:00,40.9,12.5,30.09,ENE,65,0.0,0.0,31,0.00,CLR,,0.00,WeatherDisplay:10.37,2013-01-20 15:51:00,
2013-01-20 07:54:00,41.9,13.4,30.09,ENE,65,0.0,0.0,31,0.00,CLR,,0.00,WeatherDisplay:10.37,2013-01-20 15:54:00,
2013-01-20 07:55:00,42.2,12.9,30.09,ENE,65,0.0,0.0,30,0.00,CLR,,0.00,WeatherDisplay:10.37,2013-01-20 15:55:00,
2013-01-20 07:58:00,43.2,12.2,30.09,ENE,65,0.0,0.0,28,0.00,CLR,,0.00,WeatherDisplay:10.37,2013-01-20 15:58:00,
2013-01-20 07:59:00,43.6,11.8,30.08,ENE,65,0.0,0.0,27,0.00,CLR,,0.00,WeatherDisplay:10.37,2013-01-20 15:59:00,
2013-01-20 08:00:00,43.9,12.8,30.09,ENE,65,0.0,0.0,28,0.00,CLR,,0.00,WeatherDisplay:10.37,2013-01-20 16:00:00,
2013-01-20 08:04:00,44.9,12.9,30.09,ENE,65,0.0,0.0,27,0.00,CLR,,0.00,WeatherDisplay:10.37,2013-01-20 16:04:00,
2013-01-20 08:05:00,45.1,12.2,30.09,ENE,65,0.0,0.0,26,0.00,CLR,,0.00,WeatherDisplay:10.37,2013-01-20 16:05:00,
2013-01-20 08:06:00,45.5,12.5,30.08,ENE,65,0.0,0.0,26,0.00,CLR,,0.00,WeatherDisplay:10.37,2013-01-20 16:06:00,
2013-01-20 08:09:00,46.5,12.5,30.08,ENE,65,0.0,0.0,25,0.00,CLR,,0.00,WeatherDisplay:10.37,2013-01-20 16:09:00,
2013-01-20 08:10:00,47.0,12.9,30.08,ENE,65,0.0,0.0,25,0.00,CLR,,0.00,WeatherDisplay:10.37,2013-01-20 16:10:00,
2013-01-20 08:12:00,47.3,13.2,30.08,ENE,65,0.0,0.0,25,0.00,CLR,,0.00,WeatherDisplay:10.37,2013-01-20 16:12:00,
2013-01-20 08:16:00,47.9,12.8,30.08,ENE,65,0.0,0.0,24,0.00,CLR,,0.00,WeatherDisplay:10.37,2013-01-20 16:16:00,
2013-01-20 08:17:00,48.0,14.7,30.08,ENE,65,0.0,0.0,26,0.00,CLR,,0.00,WeatherDisplay:10.37,2013-01-20 16:17:00,
2013-01-20 08:18:00,48.2,13.0,30.08,ENE,65,0.0,0.0,24,0.00,CLR,,0.00,WeatherDisplay:10.37,2013-01-20 16:18:00,
2013-01-20 08:22:00,48.6,13.4,30.08,ENE,65,0.0,0.0,24,0.00,CLR,,0.00,WeatherDisplay:10.37,2013-01-20 16:22:00,
2013-01-20 08:23:00,48.6,14.3,30.08,ENE,65,0.0,0.0,25,0.00,CLR,,0.00,WeatherDisplay:10.37,2013-01-20 16:23:00,
2013-01-20 08:24:00,48.6,14.3,30.08,ENE,65,0.0,0.0,25,0.00,CLR,,0.00,WeatherDisplay:10.37,2013-01-20 16:24:00,
2013-01-20 08:28:00,49.4,14.1,30.08,South,174,0.0,0.0,24,0.00,CLR,,0.00,WeatherDisplay:10.37,2013-01-20 16:28:00,
2013-01-20 08:29:00,49.5,15.1,30.09,South,174,0.0,0.0,25,0.00,CLR,,0.00,WeatherDisplay:10.37,2013-01-20 16:29:00,
2013-01-20 08:30:00,49.5,15.1,30.09,ESE,118,0.0,0.0,25,0.00,CLR,,0.00,WeatherDisplay:10.37,2013-01-20 16:30:00,
2013-01-20 08:33:00,50.2,13.8,30.09,South,174,0.0,0.0,23,0.00,CLR,,0.00,WeatherDisplay:10.37,2013-01-20 16:33:00,
2013-01-20 08:35:00,50.5,15.0,30.09,South,173,0.0,0.0,24,0.00,CLR,,0.00,WeatherDisplay:10.37,2013-01-20 16:35:00,
2013-01-20 08:36:00,51.0,15.4,30.09,South,174,0.0,0.0,24,0.00,CLR,,0.00,WeatherDisplay:10.37,2013-01-20 16:36:00,
2013-01-20 08:37:00,51.1,14.5,30.09,South,174,0.0,0.0,23,0.00,CLR,,0.00,WeatherDisplay:10.37,2013-01-20 16:37:00,
2013-01-20 08:40:00,51.7,14.0,30.09,South,174,0.0,0.0,22,0.00,CLR,,0.00,WeatherDisplay:10.37,2013-01-20 16:40:00,
2013-01-20 08:41:00,52.2,14.4,30.09,South,174,0.0,0.0,22,0.00,CLR,,0.00,WeatherDisplay:10.37,2013-01-20 16:41:00,
2013-01-20 08:42:00,52.3,13.5,30.09,South,174,0.0,0.0,21,0.00,CLR,,0.00,WeatherDisplay:10.37,2013-01-20 16:42:00,
2013-01-20 08:45:00,53.2,13.1,30.09,South,174,0.0,0.0,20,0.00,CLR,,0.00,WeatherDisplay:10.37,2013-01-20 16:45:00,
2013-01-20 08:47:00,53.6,12.3,30.08,South,174,0.0,0.0,19,0.00,CLR,,0.00,WeatherDisplay:10.37,2013-01-20 16:47:00,
2013-01-20 08:48:00,53.9,12.5,30.08,South,174,0.0,0.0,19,0.00,CLR,,0.00,WeatherDisplay:10.37,2013-01-20 16:48:00,
2013-01-20 08:51:00,54.5,13.0,30.09,South,174,0.0,0.0,19,0.00,CLR,,0.00,WeatherDisplay:10.37,2013-01-20 16:51:00,
2013-01-20 08:54:00,55.6,12.7,30.08,South,174,0.0,0.0,18,0.00,CLR,,0.00,WeatherDisplay:10.37,2013-01-20 16:54:00,
2013-01-20 08:57:00,56.2,13.2,30.08,South,174,0.0,0.0,18,0.00,CLR,,0.00,WeatherDisplay:10.37,2013-01-20 16:57:00,
2013-01-20 09:00:00,56.3,13.3,30.08,South,174,0.0,0.0,18,0.00,CLR,,0.00,WeatherDisplay:10.37,2013-01-20 17:00:00,
2013-01-20 09:02:00,56.6,13.5,30.08,South,174,0.0,0.0,18,0.00,CLR,,0.00,WeatherDisplay:10.37,2013-01-20 17:02:00,
2013-01-20 09:03:00,56.6,13.5,30.08,South,174,0.0,0.0,18,0.00,CLR,,0.00,WeatherDisplay:10.37,2013-01-20 17:03:00,
2013-01-20 09:05:00,57.0,15.1,30.08,South,174,0.0,0.0,19,0.00,CLR,,0.00,WeatherDisplay:10.37,2013-01-20 17:05:00,
2013-01-20 09:08:00,57.3,12.8,30.08,South,174,0.0,0.0,17,0.00,CLR,,0.00,WeatherDisplay:10.37,2013-01-20 17:08:00,
2013-01-20 09:10:00,57.5,13.0,30.08,South,174,0.0,0.0,17,0.00,CLR,,0.00,WeatherDisplay:10.37,2013-01-20 17:10:00,
2013-01-20 09:14:00,57.6,13.0,30.08,South,174,0.0,0.0,17,0.00,CLR,,0.00,WeatherDisplay:10.37,2013-01-20 17:14:00,
2013-01-20 09:16:00,57.6,13.0,30.08,South,174,0.0,0.0,17,0.00,CLR,,0.00,WeatherDisplay:10.37,2013-01-20 17:16:00,
2013-01-20 09:19:00,57.6,14.3,30.08,South,174,0.0,0.0,18,0.00,CLR,,0.00,WeatherDisplay:10.37,2013-01-20 17:19:00,
2013-01-20 09:20:00,57.6,14.3,30.08,South,174,0.0,0.0,18,0.00,CLR,,0.00,WeatherDisplay:10.37,2013-01-20 17:20:00,
2013-01-20 09:21:00,57.8,14.5,30.08,South,174,0.0,0.0,18,0.00,CLR,,0.00,WeatherDisplay:10.37,2013-01-20 17:21:00,
2013-01-20 09:25:00,58.4,15.0,30.08,South,174,0.0,0.0,18,0.00,CLR,,0.00,WeatherDisplay:10.37,2013-01-20 17:25:00,
2013-01-20 09:26:00,58.6,15.2,30.08,South,174,0.0,0.0,18,0.00,CLR,,0.00,WeatherDisplay:10.37,2013-01-20 17:26:00,
2013-01-20 09:27:00,58.9,14.1,30.08,South,174,0.0,0.0,17,0.00,CLR,,0.00,WeatherDisplay:10.37,2013-01-20 17:27:00,
2013-01-20 09:29:00,59.0,14.2,30.08,South,174,0.0,0.0,17,0.00,CLR,,0.00,WeatherDisplay:10.37,2013-01-20 17:29:00,
2013-01-20 09:31:00,59.5,13.2,30.08,South,174,0.0,0.0,16,0.00,CLR,,0.00,WeatherDisplay:10.37,2013-01-20 17:31:00,
2013-01-20 09:32:00,59.6,13.3,30.08,South,174,0.0,0.0,16,0.00,CLR,,0.00,WeatherDisplay:10.37,2013-01-20 17:32:00,
2013-01-20 09:35:00,60.1,15.1,30.08,South,174,0.0,0.0,17,0.00,CLR,,0.00,WeatherDisplay:10.37,2013-01-20 17:35:00,
2013-01-20 09:37:00,60.4,13.9,30.08,South,174,0.0,0.0,16,0.00,CLR,,0.00,WeatherDisplay:10.37,2013-01-20 17:37:00,
2013-01-20 09:38:00,60.5,14.0,30.08,South,174,0.0,0.0,16,0.00,CLR,,0.00,WeatherDisplay:10.37,2013-01-20 17:38:00,
2013-01-20 09:42:00,60.9,14.3,30.08,South,174,0.0,0.0,16,0.00,CLR,,0.00,WeatherDisplay:10.37,2013-01-20 17:42:00,
2013-01-20 09:43:00,60.9,14.3,30.08,South,174,0.0,0.0,16,0.00,CLR,,0.00,WeatherDisplay:10.37,2013-01-20 17:43:00,
2013-01-20 09:44:00,61.0,14.4,30.08,South,174,0.0,0.0,16,0.00,CLR,,0.00,WeatherDisplay:10.37,2013-01-20 17:44:00,
2013-01-20 09:48:00,61.5,13.4,30.08,South,174,1.1,0.0,15,0.00,CLR,,0.00,WeatherDisplay:10.37,2013-01-20 17:48:00,
2013-01-20 09:49:00,61.6,13.4,30.08,South,174,0.0,0.0,15,0.00,CLR,,0.00,WeatherDisplay:10.37,2013-01-20 17:49:00,
2013-01-20 09:50:00,61.8,13.6,30.08,South,174,0.0,0.0,15,0.00,CLR,,0.00,WeatherDisplay:10.37,2013-01-20 17:50:00,
2013-01-20 09:53:00,62.4,10.8,30.08,South,174,0.0,0.0,13,0.00,CLR,,0.00,WeatherDisplay:10.37,2013-01-20 17:53:00,
2013-01-20 09:55:00,62.6,11.0,30.08,South,174,0.0,0.0,13,0.00,CLR,,0.00,WeatherDisplay:10.37,2013-01-20 17:55:00,
2013-01-20 09:56:00,62.9,11.2,30.07,South,174,0.0,0.0,13,0.00,CLR,,0.00,WeatherDisplay:10.37,2013-01-20 17:56:00,
2013-01-20 09:59:00,63.2,13.1,30.07,South,174,0.0,0.0,14,0.00,CLR,,0.00,WeatherDisplay:10.37,2013-01-20 17:59:00,
2013-01-20 10:00:00,63.4,11.6,30.07,SSW,194,2.3,0.0,13,0.00,CLR,,0.00,WeatherDisplay:10.37,2013-01-20 18:00:00,
2013-01-20 10:01:00,63.4,11.6,30.07,SSW,194,0.0,0.0,13,0.00,CLR,,0.00,WeatherDisplay:10.37,2013-01-20 18:01:00,
2013-01-20 10:04:00,63.4,9.8,30.07,SSW,194,0.0,0.0,12,0.00,CLR,,0.00,WeatherDisplay:10.37,2013-01-20 18:04:00,
2013-01-20 10:05:00,63.4,9.8,30.07,South,188,0.0,1.0,12,0.00,CLR,,0.00,WeatherDisplay:10.37,2013-01-20 18:05:00,
2013-01-20 10:06:00,63.5,11.7,30.07,SSW,198,0.0,0.1,13,0.00,CLR,,0.00,WeatherDisplay:10.37,2013-01-20 18:06:00,
2013-01-20 10:09:00,64.0,12.1,30.07,SSW,198,1.1,1.1,13,0.00,CLR,,0.00,WeatherDisplay:10.37,2013-01-20 18:09:00,
2013-01-20 10:10:00,64.2,12.3,30.07,SSW,198,0.0,0.0,13,0.00,CLR,,0.00,WeatherDisplay:10.37,2013-01-20 18:10:00,
2013-01-20 10:11:00,64.5,12.5,30.07,SSW,198,1.1,0.0,13,0.00,CLR,,0.00,WeatherDisplay:10.37,2013-01-20 18:11:00,
2013-01-20 10:12:00,64.7,12.7,30.06,SSW,198,1.1,0.0,13,0.00,CLR,,0.00,WeatherDisplay:10.37,2013-01-20 18:12:00,
2013-01-20 10:15:00,65.0,12.9,30.06,SSW,198,1.1,1.1,13,0.00,CLR,,0.00,WeatherDisplay:10.37,2013-01-20 18:15:00,
2013-01-20 10:17:00,65.5,13.3,30.06,SSW,198,0.0,0.0,13,0.00,CLR,,0.00,WeatherDisplay:10.37,2013-01-20 18:17:00,
2013-01-20 10:20:00,66.0,13.7,30.06,SSW,198,0.0,0.0,13,0.00,CLR,,0.00,WeatherDisplay:10.37,2013-01-20 18:20:00,
2013-01-20 10:22:00,66.3,13.9,30.06,SSW,198,0.0,0.0,13,0.00,CLR,,0.00,WeatherDisplay:10.37,2013-01-20 18:22:00,
2013-01-20 10:25:00,66.8,14.3,30.06,SW,221,0.0,0.0,13,0.00,CLR,,0.00,WeatherDisplay:10.37,2013-01-20 18:25:00,
2013-01-20 10:27:00,67.1,12.7,30.06,SW,221,1.1,1.1,12,0.00,CLR,,0.00,WeatherDisplay:10.37,2013-01-20 18:27:00,
2013-01-20 10:28:00,67.3,12.9,30.06,SW,221,1.1,0.0,12,0.00,CLR,,0.00,WeatherDisplay:10.37,2013-01-20 18:28:00,
2013-01-20 10:31:00,67.4,11.0,30.06,SW,221,1.1,0.0,11,0.00,CLR,,0.00,WeatherDisplay:10.37,2013-01-20 18:31:00,
2013-01-20 10:32:00,67.6,13.1,30.06,SW,221,0.0,0.0,12,0.00,CLR,,0.00,WeatherDisplay:10.37,2013-01-20 18:32:00,
2013-01-20 10:35:00,67.9,13.3,30.06,West,278,2.3,2.3,12,0.00,CLR,,0.00,WeatherDisplay:10.37,2013-01-20 18:35:00,
2013-01-20 10:37:00,68.1,13.5,30.06,West,278,1.1,0.0,12,0.00,CLR,,0.00,WeatherDisplay:10.37,2013-01-20 18:37:00,
2013-01-20 10:40:00,68.3,11.7,30.06,West,278,1.1,1.1,11,0.00,CLR,,0.00,WeatherDisplay:10.37,2013-01-20 18:40:00,
2013-01-20 10:41:00,68.4,11.8,30.06,West,278,1.1,0.0,11,0.00,CLR,,0.00,WeatherDisplay:10.37,2013-01-20 18:41:00,
2013-01-20 10:43:00,68.4,13.7,30.06,West,278,1.1,1.1,12,0.00,CLR,,0.00,WeatherDisplay:10.37,2013-01-20 18:43:00,
2013-01-20 10:44:00,68.6,13.9,30.06,West,278,3.5,3.5,12,0.00,CLR,,0.00,WeatherDisplay:10.37,2013-01-20 18:44:00,
2013-01-20 10:46:00,68.6,13.9,30.06,WNW,282,3.5,3.5,12,0.00,CLR,,0.00,WeatherDisplay:10.37,2013-01-20 18:46:00,
2013-01-20 10:48:00,68.3,13.7,30.06,WNW,282,2.0,2.0,12,0.00,CLR,,0.00,WeatherDisplay:10.37,2013-01-20 18:48:00,
2013-01-20 10:49:00,68.3,13.7,30.06,WSW,255,3.5,3.5,12,0.00,CLR,,0.00,WeatherDisplay:10.37,2013-01-20 18:49:00,
2013-01-20 10:52:00,68.1,13.5,30.06,West,281,1.1,1.1,12,0.00,CLR,,0.00,WeatherDisplay:10.37,2013-01-20 18:52:00,
2013-01-20 10:54:00,68.1,13.5,30.06,West,281,2.3,2.3,12,0.00,CLR,,0.00,WeatherDisplay:10.37,2013-01-20 18:54:00,
2013-01-20 10:59:00,68.6,11.9,30.05,West,281,2.0,2.0,11,0.00,CLR,,0.00,WeatherDisplay:10.37,2013-01-20 18:59:00,
2013-01-20 11:00:00,68.6,11.9,30.05,West,281,2.3,2.3,11,0.00,CLR,,0.00,WeatherDisplay:10.37,2013-01-20 19:00:00,
2013-01-20 11:01:00,68.8,12.1,30.05,West,281,2.3,2.3,11,0.00,CLR,,0.00,WeatherDisplay:10.37,2013-01-20 19:01:00,
2013-01-20 11:05:00,69.0,12.2,30.05,West,262,0.0,2.0,11,0.00,CLR,,0.00,WeatherDisplay:10.37,2013-01-20 19:05:00,
2013-01-20 11:06:00,69.1,12.3,30.05,WSW,238,1.1,1.1,11,0.00,CLR,,0.00,WeatherDisplay:10.37,2013-01-20 19:06:00,
2013-01-20 11:11:00,69.8,10.7,30.04,West,280,1.1,1.1,10,0.00,CLR,,0.00,WeatherDisplay:10.37,2013-01-20 19:11:00,
2013-01-20 11:12:00,69.8,10.7,30.04,West,280,1.1,1.1,10,0.00,CLR,,0.00,WeatherDisplay:10.37,2013-01-20 19:12:00,
2013-01-20 11:16:00,69.9,10.8,30.04,West,280,2.3,2.3,10,0.00,CLR,,0.00,WeatherDisplay:10.37,2013-01-20 19:16:00,
2013-01-20 11:17:00,69.9,8.4,30.04,West,280,2.3,2.3,9,0.00,CLR,,0.00,WeatherDisplay:10.37,2013-01-20 19:17:00,
2013-01-20 11:22:00,70.3,11.1,30.03,West,280,2.3,2.3,10,0.00,CLR,,0.00,WeatherDisplay:10.37,2013-01-20 19:22:00,
2013-01-20 11:23:00,70.3,11.1,30.03,West,280,2.3,2.3,10,0.00,CLR,,0.00,WeatherDisplay:10.37,2013-01-20 19:23:00,
2013-01-20 11:28:00,70.3,11.1,30.03,West,280,1.1,0.0,10,0.00,CLR,,0.00,WeatherDisplay:10.37,2013-01-20 19:28:00,
2013-01-20 11:29:00,70.3,11.1,30.03,West,280,0.0,0.0,10,0.00,CLR,,0.00,WeatherDisplay:10.37,2013-01-20 19:29:00,
2013-01-20 11:30:00,70.1,10.9,30.03,West,280,0.0,0.0,10,0.00,CLR,,0.00,WeatherDisplay:10.37,2013-01-20 19:30:00,
2013-01-20 11:33:00,69.9,10.8,30.02,West,280,2.3,2.3,10,0.00,CLR,,0.00,WeatherDisplay:10.37,2013-01-20 19:33:00,
2013-01-20 11:34:00,69.9,8.4,30.02,West,280,1.1,0.0,9,0.00,CLR,,0.00,WeatherDisplay:10.37,2013-01-20 19:34:00,
2013-01-20 11:35:00,69.9,8.4,30.02,West,280,0.0,0.3,9,0.00,CLR,,0.00,WeatherDisplay:10.37,2013-01-20 19:35:00,
2013-01-20 11:36:00,69.9,10.8,30.02,West,280,1.1,1.1,10,0.00,CLR,,0.00,WeatherDisplay:10.37,2013-01-20 19:36:00,
2013-01-20 11:39:00,70.3,8.7,30.02,West,280,2.3,2.3,9,0.00,CLR,,0.00,WeatherDisplay:10.37,2013-01-20 19:39:00,
2013-01-20 11:40:00,70.4,11.2,30.02,West,280,0.0,0.0,10,0.00,CLR,,0.00,WeatherDisplay:10.37,2013-01-20 19:40:00,
2013-01-20 11:42:00,70.6,11.3,30.01,West,280,0.0,0.0,10,0.00,CLR,,0.00,WeatherDisplay:10.37,2013-01-20 19:42:00,
2013-01-20 11:43:00,70.6,11.3,30.01,West,280,0.0,0.0,10,0.00,CLR,,0.00,WeatherDisplay:10.37,2013-01-20 19:43:00,
2013-01-20 11:45:00,70.8,11.5,30.01,West,280,1.1,1.1,10,0.00,CLR,,0.00,WeatherDisplay:10.37,2013-01-20 19:45:00,
2013-01-20 11:47:00,70.9,11.5,30.01,West,280,1.1,1.1,10,0.00,CLR,,0.00,WeatherDisplay:10.37,2013-01-20 19:47:00,
2013-01-20 11:48:00,70.9,11.5,30.01,West,280,2.3,2.3,10,0.00,CLR,,0.00,WeatherDisplay:10.37,2013-01-20 19:48:00,
2013-01-20 11:50:00,71.3,11.8,30.01,West,280,2.3,2.3,10,0.00,CLR,,0.00,WeatherDisplay:10.37,2013-01-20 19:50:00,
2013-01-20 11:53:00,71.5,12.0,30.01,West,280,0.0,0.0,10,0.00,CLR,,0.00,WeatherDisplay:10.37,2013-01-20 19:53:00,
2013-01-20 11:54:00,71.5,12.0,30.00,West,280,0.0,0.0,10,0.00,CLR,,0.00,WeatherDisplay:10.37,2013-01-20 19:54:00,
2013-01-20 11:56:00,71.8,9.9,30.00,West,280,1.1,1.1,9,0.00,CLR,,0.00,WeatherDisplay:10.37,2013-01-20 19:56:00,
2013-01-20 11:57:00,71.8,9.9,30.00,West,280,1.1,1.1,9,0.00,CLR,,0.00,WeatherDisplay:10.37,2013-01-20 19:57:00,
2013-01-20 11:58:00,72.0,10.0,30.00,West,280,0.0,0.0,9,0.00,CLR,,0.00,WeatherDisplay:10.37,2013-01-20 19:58:00,
2013-01-20 12:00:00,72.3,10.2,30.00,West,281,3.5,3.5,9,0.00,CLR,,0.00,WeatherDisplay:10.37,2013-01-20 20:00:00,
2013-01-20 12:02:00,72.5,10.4,30.00,West,265,3.5,3.5,9,0.00,CLR,,0.00,WeatherDisplay:10.37,2013-01-20 20:02:00,
2013-01-20 12:03:00,72.5,10.4,30.00,West,265,3.5,3.5,9,0.00,CLR,,0.00,WeatherDisplay:10.37,2013-01-20 20:03:00,
2013-01-20 12:04:00,72.5,12.8,30.00,West,265,2.3,2.3,10,0.00,CLR,,0.00,WeatherDisplay:10.37,2013-01-20 20:04:00,
2013-01-20 12:05:00,72.5,10.4,30.00,West,265,1.1,0.0,9,0.00,CLR,,0.00,WeatherDisplay:10.37,2013-01-20 20:05:00,
2013-01-20 12:07:00,72.3,10.2,30.00,West,265,2.0,2.0,9,0.00,CLR,,0.00,WeatherDisplay:10.37,2013-01-20 20:07:00,
2013-01-20 12:09:00,72.3,7.6,30.00,WSW,252,3.5,3.5,8,0.00,CLR,,0.00,WeatherDisplay:10.37,2013-01-20 20:09:00,
2013-01-20 12:10:00,72.3,10.2,29.99,WSW,252,2.3,2.3,9,0.00,CLR,,0.00,WeatherDisplay:10.37,2013-01-20 20:10:00,
2013-01-20 12:12:00,72.5,10.4,29.99,WSW,257,3.5,3.5,9,0.00,CLR,,0.00,WeatherDisplay:10.37,2013-01-20 20:12:00,
2013-01-20 12:13:00,72.5,10.4,29.99,WSW,257,3.5,3.5,9,0.00,CLR,,0.00,WeatherDisplay:10.37,2013-01-20 20:13:00,
2013-01-20 12:15:00,72.1,10.1,29.99,WSW,257,1.0,0.0,9,0.00,CLR,,0.00,WeatherDisplay:10.37,2013-01-20 20:15:00,
2013-01-20 12:16:00,72.1,10.1,29.99,WSW,257,1.1,0.0,9,0.00,CLR,,0.00,WeatherDisplay:10.37,2013-01-20 20:16:00,
2013-01-20 12:19:00,71.8,7.2,29.99,WSW,257,3.5,3.5,8,0.00,CLR,,0.00,WeatherDisplay:10.37,2013-01-20 20:19:00,
2013-01-20 12:20:00,72.0,10.0,29.99,WSW,257,2.3,2.3,9,0.00,CLR,,0.00,WeatherDisplay:10.37,2013-01-20 20:20:00,
2013-01-20 12:21:00,72.0,10.0,29.99,WSW,257,2.3,2.3,9,0.00,CLR,,0.00,WeatherDisplay:10.37,2013-01-20 20:21:00,
2013-01-20 12:24:00,72.3,10.2,29.99,WSW,257,1.1,1.1,9,0.00,CLR,,0.00,WeatherDisplay:10.37,2013-01-20 20:24:00,
2013-01-20 12:25:00,72.5,10.4,29.99,WSW,257,1.1,1.1,9,0.00,CLR,,0.00,WeatherDisplay:10.37,2013-01-20 20:25:00,
2013-01-20 12:26:00,72.5,10.4,29.98,WSW,257,1.1,1.1,9,0.00,CLR,,0.00,WeatherDisplay:10.37,2013-01-20 20:26:00,
2013-01-20 12:27:00,72.7,10.5,29.98,WSW,257,3.5,3.5,9,0.00,CLR,,0.00,WeatherDisplay:10.37,2013-01-20 20:27:00,
2013-01-20 12:30:00,72.7,7.9,29.99,WNW,289,3.5,3.5,8,0.00,CLR,,0.00,WeatherDisplay:10.37,2013-01-20 20:30:00,
2013-01-20 12:32:00,72.8,5.0,29.99,WNW,302,3.5,3.5,7,0.00,CLR,,0.00,WeatherDisplay:10.37,2013-01-20 20:32:00,
2013-01-20 12:35:00,73.0,8.1,29.98,WNW,290,3.5,0.0,8,0.00,CLR,,0.00,WeatherDisplay:10.37,2013-01-20 20:35:00,
2013-01-20 12:37:00,73.2,8.3,29.98,WNW,290,3.5,3.5,8,0.00,CLR,,0.00,WeatherDisplay:10.37,2013-01-20 20:37:00,
2013-01-20 12:38:00,73.2,8.3,29.98,WNW,290,1.1,1.1,8,0.00,CLR,,0.00,WeatherDisplay:10.37,2013-01-20 20:38:00,
2013-01-20 12:39:00,73.3,8.4,29.98,WNW,283,4.6,4.6,8,0.00,CLR,,0.00,WeatherDisplay:10.37,2013-01-20 20:39:00,
2013-01-20 12:41:00,73.2,8.3,29.98,WNW,283,2.0,2.0,8,0.00,CLR,,0.00,WeatherDisplay:10.37,2013-01-20 20:41:00,
2013-01-20 12:43:00,73.2,8.3,29.98,WNW,283,2.3,2.3,8,0.00,CLR,,0.00,WeatherDisplay:10.37,2013-01-20 20:43:00,
2013-01-20 12:45:00,73.2,8.3,29.98,WNW,284,0.0,2.0,8,0.00,CLR,,0.00,WeatherDisplay:10.37,2013-01-20 20:45:00,
2013-01-20 12:47:00,73.3,8.4,29.97,WSW,251,1.1,1.1,8,0.00,CLR,,0.00,WeatherDisplay:10.37,2013-01-20 20:47:00,
2013-01-20 12:49:00,73.7,5.7,29.97,WSW,255,3.5,3.5,7,0.00,CLR,,0.00,WeatherDisplay:10.37,2013-01-20 20:49:00,
2013-01-20 12:50:00,73.9,8.8,29.97,SW,219,2.3,2.3,8,0.00,CLR,,0.00,WeatherDisplay:10.37,2013-01-20 20:50:00,
2013-01-20 12:53:00,74.0,5.9,29.97,WNW,284,1.1,0.0,7,0.00,CLR,,0.00,WeatherDisplay:10.37,2013-01-20 20:53:00,
2013-01-20 12:54:00,74.0,8.9,29.97,WNW,284,3.5,3.5,8,0.00,CLR,,0.00,WeatherDisplay:10.37,2013-01-20 20:54:00,
2013-01-20 12:56:00,74.0,5.9,29.97,WNW,284,0.0,0.0,7,0.00,CLR,,0.00,WeatherDisplay:10.37,2013-01-20 20:56:00,
2013-01-20 12:58:00,73.9,8.8,29.97,WNW,293,1.1,0.0,8,0.00,CLR,,0.00,WeatherDisplay:10.37,2013-01-20 20:58:00,
2013-01-20 12:59:00,73.9,8.8,29.97,WNW,293,0.0,0.0,8,0.00,CLR,,0.00,WeatherDisplay:10.37,2013-01-20 20:59:00,
2013-01-20 13:00:00,73.9,8.8,29.96,WNW,293,0.0,0.1,8,0.00,CLR,,0.00,WeatherDisplay:10.37,2013-01-20 21:00:00,
2013-01-20 13:01:00,73.9,8.8,29.97,WNW,287,1.1,1.1,8,0.00,CLR,,0.00,WeatherDisplay:10.37,2013-01-20 21:01:00,
2013-01-20 13:04:00,74.2,9.0,29.96,WNW,286,1.0,0.0,8,0.00,CLR,,0.00,WeatherDisplay:10.37,2013-01-20 21:04:00,
2013-01-20 13:06:00,74.4,9.2,29.96,South,176,2.0,2.0,8,0.00,CLR,,0.00,WeatherDisplay:10.37,2013-01-20 21:06:00,
2013-01-20 13:07:00,74.4,9.2,29.96,South,177,3.5,3.5,8,0.00,CLR,,0.00,WeatherDisplay:10.37,2013-01-20 21:07:00,
2013-01-20 13:09:00,74.4,9.2,29.96,South,177,1.1,1.1,8,0.00,CLR,,0.00,WeatherDisplay:10.37,2013-01-20 21:09:00,
2013-01-20 13:12:00,74.4,9.2,29.96,West,276,4.0,4.0,8,0.00,CLR,,0.00,WeatherDisplay:10.37,2013-01-20 21:12:00,
2013-01-20 13:14:00,74.4,9.2,29.96,West,281,2.3,2.3,8,0.00,CLR,,0.00,WeatherDisplay:10.37,2013-01-20 21:14:00,
2013-01-20 13:18:00,74.6,6.4,29.95,WNW,287,2.3,2.3,7,0.00,CLR,,0.00,WeatherDisplay:10.37,2013-01-20 21:18:00,
2013-01-20 13:20:00,74.6,9.3,29.95,WNW,284,1.0,4.0,8,0.00,CLR,,0.00,WeatherDisplay:10.37,2013-01-20 21:20:00,
2013-01-20 13:24:00,75.1,6.7,29.95,WSW,251,3.5,3.5,7,0.00,CLR,,0.00,WeatherDisplay:10.37,2013-01-20 21:24:00,
2013-01-20 13:25:00,75.1,6.7,29.95,West,271,1.0,4.0,7,0.00,CLR,,0.00,WeatherDisplay:10.37,2013-01-20 21:25:00,
2013-01-20 13:26:00,75.1,6.7,29.95,WSW,251,0.0,0.0,7,0.00,CLR,,0.00,WeatherDisplay:10.37,2013-01-20 21:26:00,
2013-01-20 13:30:00,75.5,7.0,29.95,WSW,254,1.0,2.0,7,0.00,CLR,,0.00,WeatherDisplay:10.37,2013-01-20 21:30:00,
2013-01-20 13:32:00,75.8,7.3,29.94,WSW,252,3.5,3.5,7,0.00,CLR,,0.00,WeatherDisplay:10.37,2013-01-20 21:32:00,
2013-01-20 13:33:00,75.8,7.3,29.94,WSW,252,3.5,3.5,7,0.00,CLR,,0.00,WeatherDisplay:10.37,2013-01-20 21:33:00,
2013-01-20 13:38:00,76.1,7.5,29.94,WNW,290,3.5,3.5,7,0.00,CLR,,0.00,WeatherDisplay:10.37,2013-01-20 21:38:00,
2013-01-20 13:44:00,76.3,7.6,29.94,WNW,283,3.5,3.5,7,0.00,CLR,,0.00,WeatherDisplay:10.37,2013-01-20 21:44:00,
2013-01-20 13:47:00,76.3,7.6,29.94,WNW,283,1.0,1.0,7,0.00,CLR,,0.00,WeatherDisplay:10.37,2013-01-20 21:47:00,
2013-01-20 13:49:00,76.3,10.6,29.94,WNW,283,1.1,0.0,8,0.00,CLR,,0.00,WeatherDisplay:10.37,2013-01-20 21:49:00,
2013-01-20 13:52:00,76.5,7.8,29.94,West,259,3.5,3.5,7,0.00,CLR,,0.00,WeatherDisplay:10.37,2013-01-20 21:52:00,
2013-01-20 13:53:00,76.5,7.8,29.94,West,274,3.5,3.5,7,0.00,CLR,,0.00,WeatherDisplay:10.37,2013-01-20 21:53:00,
2013-01-20 13:55:00,76.7,7.9,29.94,WNW,289,3.5,3.5,7,0.00,CLR,,0.00,WeatherDisplay:10.37,2013-01-20 21:55:00,
2013-01-20 13:57:00,76.7,7.9,29.94,WNW,289,1.1,1.1,7,0.00,CLR,,0.00,WeatherDisplay:10.37,2013-01-20 21:57:00,
2013-01-20 13:58:00,76.7,7.9,29.94,WNW,289,1.1,0.0,7,0.00,CLR,,0.00,WeatherDisplay:10.37,2013-01-20 21:58:00,
2013-01-20 14:00:00,76.5,7.8,29.94,WNW,289,1.1,0.0,7,0.00,CLR,,0.00,WeatherDisplay:10.37,2013-01-20 22:00:00,
2013-01-20 14:01:00,76.5,7.8,29.94,WNW,289,2.0,2.0,7,0.00,CLR,,0.00,WeatherDisplay:10.37,2013-01-20 22:01:00,
2013-01-20 14:03:00,76.3,7.6,29.93,NW,304,3.5,3.5,7,0.00,CLR,,0.00,WeatherDisplay:10.37,2013-01-20 22:03:00,
2013-01-20 14:05:00,76.3,7.6,29.93,WNW,293,1.0,3.0,7,0.00,CLR,,0.00,WeatherDisplay:10.37,2013-01-20 22:05:00,
2013-01-20 14:06:00,76.3,7.6,29.93,SSE,156,1.1,0.0,7,0.00,CLR,,0.00,WeatherDisplay:10.37,2013-01-20 22:06:00,
2013-01-20 14:08:00,76.3,7.6,29.93,SSE,156,0.0,0.0,7,0.00,CLR,,0.00,WeatherDisplay:10.37,2013-01-20 22:08:00,
2013-01-20 14:10:00,76.5,7.8,29.93,WSW,258,1.0,3.0,7,0.00,CLR,,0.00,WeatherDisplay:10.37,2013-01-20 22:10:00,
2013-01-20 14:12:00,76.5,7.8,29.93,West,266,1.1,1.1,7,0.00,CLR,,0.00,WeatherDisplay:10.37,2013-01-20 22:12:00,
2013-01-20 14:14:00,76.5,7.8,29.93,West,267,1.1,1.1,7,0.00,CLR,,0.00,WeatherDisplay:10.37,2013-01-20 22:14:00,
2013-01-20 14:15:00,76.5,7.8,29.93,West,267,2.3,2.3,7,0.00,CLR,,0.00,WeatherDisplay:10.37,2013-01-20 22:15:00,
2013-01-20 14:17:00,76.5,7.8,29.93,West,269,2.3,2.3,7,0.00,CLR,,0.00,WeatherDisplay:10.37,2013-01-20 22:17:00,
2013-01-20 14:21:00,76.5,7.8,29.93,West,269,3.5,3.5,7,0.00,CLR,,0.00,WeatherDisplay:10.37,2013-01-20 22:21:00,
2013-01-20 14:22:00,76.5,7.8,29.93,West,269,0.0,0.0,7,0.00,CLR,,0.00,WeatherDisplay:10.37,2013-01-20 22:22:00,
2013-01-20 14:23:00,76.5,7.8,29.93,West,269,0.0,0.0,7,0.00,CLR,,0.00,WeatherDisplay:10.37,2013-01-20 22:23:00,
2013-01-20 14:26:00,76.3,7.6,29.93,West,269,3.5,3.5,7,0.00,CLR,,0.00,WeatherDisplay:10.37,2013-01-20 22:26:00,
2013-01-20 14:28:00,76.1,7.5,29.93,West,269,2.3,2.3,7,0.00,CLR,,0.00,WeatherDisplay:10.37,2013-01-20 22:28:00,
2013-01-20 14:32:00,76.1,7.5,29.92,West,274,2.0,2.0,7,0.00,CLR,,0.00,WeatherDisplay:10.37,2013-01-20 22:32:00,
2013-01-20 14:33:00,76.0,7.4,29.92,West,272,4.6,4.6,7,0.00,CLR,,0.00,WeatherDisplay:10.37,2013-01-20 22:33:00,
2013-01-20 14:34:00,76.0,10.4,29.92,West,272,1.1,0.0,8,0.00,CLR,,0.00,WeatherDisplay:10.37,2013-01-20 22:34:00,
2013-01-20 14:37:00,75.8,7.3,29.92,NW,319,1.1,1.1,7,0.00,CLR,,0.00,WeatherDisplay:10.37,2013-01-20 22:37:00,
2013-01-20 14:39:00,75.8,7.3,29.92,NW,319,1.1,1.1,7,0.00,CLR,,0.00,WeatherDisplay:10.37,2013-01-20 22:39:00,
2013-01-20 14:40:00,75.8,7.3,29.92,WNW,299,0.0,2.0,7,0.00,CLR,,0.00,WeatherDisplay:10.37,2013-01-20 22:40:00,
2013-01-20 14:43:00,75.8,7.3,29.92,West,262,3.5,3.5,7,0.00,CLR,,0.00,WeatherDisplay:10.37,2013-01-20 22:43:00,
2013-01-20 14:45:00,75.8,7.3,29.92,WNW,293,0.0,3.0,7,0.00,CLR,,0.00,WeatherDisplay:10.37,2013-01-20 22:45:00,
2013-01-20 14:49:00,75.8,7.3,29.92,West,274,2.3,2.3,7,0.00,CLR,,0.00,WeatherDisplay:10.37,2013-01-20 22:49:00,
2013-01-20 14:50:00,75.8,7.3,29.92,West,264,2.3,2.3,7,0.00,CLR,,0.00,WeatherDisplay:10.37,2013-01-20 22:50:00,
2013-01-20 14:51:00,75.8,7.3,29.92,West,264,1.1,1.1,7,0.00,CLR,,0.00,WeatherDisplay:10.37,2013-01-20 22:51:00,
2013-01-20 14:55:00,75.8,7.3,29.92,West,264,1.1,1.1,7,0.00,CLR,,0.00,WeatherDisplay:10.37,2013-01-20 22:55:00,
2013-01-20 14:56:00,75.8,7.3,29.92,West,271,2.0,2.2,7,0.00,CLR,,0.00,WeatherDisplay:10.37,2013-01-20 22:56:00,
2013-01-20 14:57:00,75.8,7.3,29.92,West,271,4.6,4.6,7,0.00,CLR,,0.00,WeatherDisplay:10.37,2013-01-20 22:57:00,
2013-01-20 15:01:00,75.8,7.3,29.92,West,273,2.3,2.3,7,0.00,CLR,,0.00,WeatherDisplay:10.37,2013-01-20 23:01:00,
2013-01-20 15:02:00,75.8,7.3,29.92,West,273,1.1,1.1,7,0.00,CLR,,0.00,WeatherDisplay:10.37,2013-01-20 23:02:00,
2013-01-20 15:04:00,76.0,7.4,29.92,West,273,1.1,1.1,7,0.00,CLR,,0.00,WeatherDisplay:10.37,2013-01-20 23:04:00,
2013-01-20 15:07:00,76.0,7.4,29.92,West,273,2.3,2.3,7,0.00,CLR,,0.00,WeatherDisplay:10.37,2013-01-20 23:07:00,
2013-01-20 15:10:00,76.0,7.4,29.92,West,273,2.0,2.0,7,0.00,CLR,,0.00,WeatherDisplay:10.37,2013-01-20 23:10:00,
2013-01-20 15:11:00,76.0,7.4,29.92,West,274,2.3,2.3,7,0.00,CLR,,0.00,WeatherDisplay:10.37,2013-01-20 23:11:00,
2013-01-20 15:13:00,76.0,7.4,29.92,West,274,2.3,2.3,7,0.00,CLR,,0.00,WeatherDisplay:10.37,2013-01-20 23:13:00,
2013-01-20 15:15:00,75.8,7.3,29.92,West,274,1.1,1.1,7,0.00,CLR,,0.00,WeatherDisplay:10.37,2013-01-20 23:15:00,
2013-01-20 15:18:00,75.8,7.3,29.92,West,274,0.0,0.0,7,0.00,CLR,,0.00,WeatherDisplay:10.37,2013-01-20 23:18:00,
2013-01-20 15:19:00,75.8,7.3,29.92,West,274,1.0,0.0,7,0.00,CLR,,0.00,WeatherDisplay:10.37,2013-01-20 23:19:00,
2013-01-20 15:22:00,75.8,7.3,29.92,West,274,1.1,1.1,7,0.00,CLR,,0.00,WeatherDisplay:10.37,2013-01-20 23:22:00,
2013-01-20 15:25:00,75.6,3.7,29.92,NW,307,2.0,3.0,6,0.00,CLR,,0.00,WeatherDisplay:10.37,2013-01-20 23:25:00,
2013-01-20 15:26:00,75.6,3.7,29.92,East,91,2.3,2.3,6,0.00,CLR,,0.00,WeatherDisplay:10.37,2013-01-20 23:26:00,
2013-01-20 15:27:00,75.4,3.6,29.93,WNW,294,2.3,2.3,6,0.00,CLR,,0.00,WeatherDisplay:10.37,2013-01-20 23:27:00,
2013-01-20 15:30:00,75.4,3.6,29.93,SE,124,1.1,1.1,6,0.00,CLR,,0.00,WeatherDisplay:10.37,2013-01-20 23:30:00,
2013-01-20 15:31:00,75.4,3.6,29.93,ESE,106,1.1,1.1,6,0.00,CLR,,0.00,WeatherDisplay:10.37,2013-01-20 23:31:00,
2013-01-20 15:33:00,75.3,3.5,29.93,ENE,75,2.0,2.0,6,0.00,CLR,,0.00,WeatherDisplay:10.37,2013-01-20 23:33:00,
2013-01-20 15:35:00,75.3,3.5,29.93,NE,44,3.5,3.5,6,0.00,CLR,,0.00,WeatherDisplay:10.37,2013-01-20 23:35:00,
2013-01-20 15:37:00,75.1,3.4,29.93,NE,43,1.1,0.0,6,0.00,CLR,,0.00,WeatherDisplay:10.37,2013-01-20 23:37:00,
2013-01-20 15:38:00,75.1,3.4,29.93,NE,44,1.1,0.0,6,0.00,CLR,,0.00,WeatherDisplay:10.37,2013-01-20 23:38:00,
2013-01-20 15:40:00,75.1,3.4,29.93,NE,56,1.1,1.1,6,0.00,CLR,,0.00,WeatherDisplay:10.37,2013-01-20 23:40:00,
2013-01-20 15:42:00,74.9,3.2,29.93,NE,55,1.1,1.1,6,0.00,CLR,,0.00,WeatherDisplay:10.37,2013-01-20 23:42:00,
2013-01-20 15:44:00,74.9,3.2,29.93,NE,55,1.1,0.0,6,0.00,CLR,,0.00,WeatherDisplay:10.37,2013-01-20 23:44:00,
2013-01-20 15:47:00,74.9,3.2,29.93,NE,42,3.5,3.5,6,0.00,CLR,,0.00,WeatherDisplay:10.37,2013-01-20 23:47:00,
2013-01-20 15:50:00,74.7,3.1,29.93,NE,45,1.0,4.0,6,0.00,CLR,,0.00,WeatherDisplay:10.37,2013-01-20 23:50:00,
2013-01-20 15:52:00,74.6,3.0,29.93,NNE,23,1.1,1.1,6,0.00,CLR,,0.00,WeatherDisplay:10.37,2013-01-20 23:52:00,
2013-01-20 15:55:00,74.4,2.9,29.93,ENE,64,1.1,0.0,6,0.00,CLR,,0.00,WeatherDisplay:10.37,2013-01-20 23:55:00,
2013-01-20 15:56:00,74.4,6.2,29.93,ENE,65,0.0,0.0,7,0.00,CLR,,0.00,WeatherDisplay:10.37,2013-01-20 23:56:00,
2013-01-20 15:57:00,74.4,6.2,29.93,East,81,1.1,1.1,7,0.00,CLR,,0.00,WeatherDisplay:10.37,2013-01-20 23:57:00,
2013-01-20 16:01:00,74.2,6.1,29.93,NE,51,0.0,0.0,7,0.00,CLR,,0.00,WeatherDisplay:10.37,2013-01-21 00:01:00,
2013-01-20 16:02:00,74.0,2.6,29.93,NE,51,0.0,0.0,6,0.00,CLR,,0.00,WeatherDisplay:10.37,2013-01-21 00:02:00,
2013-01-20 16:03:00,74.0,2.6,29.93,East,79,3.5,3.5,6,0.00,CLR,,0.00,WeatherDisplay:10.37,2013-01-21 00:03:00,
2013-01-20 16:06:00,74.0,11.5,29.93,East,79,0.0,0.0,9,0.00,CLR,,0.00,WeatherDisplay:10.37,2013-01-21 00:06:00,
2013-01-20 16:08:00,73.9,5.9,29.93,NNE,18,0.0,1.0,7,0.00,CLR,,0.00,WeatherDisplay:10.37,2013-01-21 00:08:00,
2013-01-20 16:09:00,73.9,2.5,29.93,NE,49,2.3,2.3,6,0.00,CLR,,0.00,WeatherDisplay:10.37,2013-01-21 00:09:00,
2013-01-20 16:10:00,73.7,5.7,29.93,NE,49,1.1,1.1,7,0.00,CLR,,0.00,WeatherDisplay:10.37,2013-01-21 00:10:00,
2013-01-20 16:12:00,73.7,8.7,29.93,NNE,16,3.5,3.5,8,0.00,CLR,,0.00,WeatherDisplay:10.37,2013-01-21 00:12:00,
2013-01-20 16:13:00,73.5,5.6,29.93,NNE,16,3.5,0.0,7,0.00,CLR,,0.00,WeatherDisplay:10.37,2013-01-21 00:13:00,
2013-01-20 16:16:00,73.5,5.6,29.93,NNE,16,1.1,1.1,7,0.00,CLR,,0.00,WeatherDisplay:10.37,2013-01-21 00:16:00,
2013-01-20 16:17:00,73.3,5.4,29.94,NE,41,1.1,1.1,7,0.00,CLR,,0.00,WeatherDisplay:10.37,2013-01-21 00:17:00,
2013-01-20 16:18:00,73.2,8.3,29.94,NE,41,0.0,0.0,8,0.00,CLR,,0.00,WeatherDisplay:10.37,2013-01-21 00:18:00,
2013-01-20 16:22:00,73.0,5.2,29.94,ENE,65,0.0,0.0,7,0.00,CLR,,0.00,WeatherDisplay:10.37,2013-01-21 00:22:00,
2013-01-20 16:23:00,73.0,5.2,29.94,ENE,65,0.0,0.0,7,0.00,CLR,,0.00,WeatherDisplay:10.37,2013-01-21 00:23:00,
2013-01-20 16:25:00,72.8,10.6,29.94,NE,48,2.3,2.3,9,0.00,CLR,,0.00,WeatherDisplay:10.37,2013-01-21 00:25:00,
2013-01-20 16:29:00,72.5,7.8,29.94,East,82,2.3,2.3,8,0.00,CLR,,0.00,WeatherDisplay:10.37,2013-01-21 00:29:00,
2013-01-20 16:30:00,72.5,4.8,29.94,East,82,2.3,2.3,7,0.00,CLR,,0.00,WeatherDisplay:10.37,2013-01-21 00:30:00,
2013-01-20 16:33:00,72.1,4.5,29.94,NE,44,3.5,3.5,7,0.00,CLR,,0.00,WeatherDisplay:10.37,2013-01-21 00:33:00,
2013-01-20 16:35:00,72.1,4.5,29.95,ENE,63,0.0,3.0,7,0.00,CLR,,0.00,WeatherDisplay:10.37,2013-01-21 00:35:00,
2013-01-20 16:36:00,71.8,4.3,29.95,NE,40,0.0,0.1,7,0.00,CLR,,0.00,WeatherDisplay:10.37,2013-01-21 00:36:00,
2013-01-20 16:40:00,71.6,4.2,29.95,NE,42,0.0,4.0,7,0.00,CLR,,0.00,WeatherDisplay:10.37,2013-01-21 00:40:00,
2013-01-20 16:41:00,71.5,4.1,29.95,NE,34,0.0,0.0,7,0.00,CLR,,0.00,WeatherDisplay:10.37,2013-01-21 00:41:00,
2013-01-20 16:42:00,71.3,3.9,29.95,NE,34,0.0,0.1,7,0.00,CLR,,0.00,WeatherDisplay:10.37,2013-01-21 00:42:00,
2013-01-20 16:43:00,71.1,3.8,29.95,NE,34,1.1,1.1,7,0.00,CLR,,0.00,WeatherDisplay:10.37,2013-01-21 00:43:00,
2013-01-20 16:45:00,71.0,3.7,29.95,NE,37,0.0,4.0,7,0.00,CLR,,0.00,WeatherDisplay:10.37,2013-01-21 00:45:00,
2013-01-20 16:48:00,70.4,3.3,29.96,NE,45,1.1,1.1,7,0.00,CLR,,0.00,WeatherDisplay:10.37,2013-01-21 00:48:00,
2013-01-20 16:50:00,70.3,3.2,29.96,NE,44,0.0,2.0,7,0.00,CLR,,0.00,WeatherDisplay:10.37,2013-01-21 00:50:00,
2013-01-20 16:52:00,69.9,5.8,29.96,NE,50,1.1,1.1,8,0.00,CLR,,0.00,WeatherDisplay:10.37,2013-01-21 00:52:00,
2013-01-20 16:55:00,69.4,5.4,29.96,NE,50,0.0,0.0,8,0.00,CLR,,0.00,WeatherDisplay:10.37,2013-01-21 00:55:00,
2013-01-20 16:56:00,69.3,5.4,29.96,NNE,29,2.0,2.0,8,0.00,CLR,,0.00,WeatherDisplay:10.37,2013-01-21 00:56:00,
2013-01-20 16:57:00,69.3,2.5,29.96,NNE,21,3.5,3.5,7,0.00,CLR,,0.00,WeatherDisplay:10.37,2013-01-21 00:57:00,
2013-01-20 16:59:00,68.9,2.2,29.96,NNE,18,0.0,0.0,7,0.00,CLR,,0.00,WeatherDisplay:10.37,2013-01-21 00:59:00,
2013-01-20 17:01:00,68.8,2.1,29.96,NNE,18,0.0,0.0,7,0.00,CLR,,0.00,WeatherDisplay:10.37,2013-01-21 01:01:00,
2013-01-20 17:02:00,68.6,1.9,29.96,NNE,18,0.0,0.0,7,0.00,CLR,,0.00,WeatherDisplay:10.37,2013-01-21 01:02:00,
2013-01-20 17:04:00,68.3,1.7,29.96,NE,46,0.0,0.0,7,0.00,CLR,,0.00,WeatherDisplay:10.37,2013-01-21 01:04:00,
2013-01-20 17:07:00,68.1,1.6,29.96,ENE,78,0.0,0.0,7,0.00,CLR,,0.00,WeatherDisplay:10.37,2013-01-21 01:07:00,
2013-01-20 17:08:00,67.9,4.3,29.96,ENE,78,0.0,0.0,8,0.00,CLR,,0.00,WeatherDisplay:10.37,2013-01-21 01:08:00,
2013-01-20 17:10:00,67.8,1.4,29.96,NE,34,0.0,0.0,7,0.00,CLR,,0.00,WeatherDisplay:10.37,2013-01-21 01:10:00,
2013-01-20 17:11:00,67.6,4.1,29.96,NNE,20,0.0,0.0,8,0.00,CLR,,0.00,WeatherDisplay:10.37,2013-01-21 01:11:00,
2013-01-20 17:13:00,67.4,1.1,29.96,NNE,20,0.0,0.0,7,0.00,CLR,,0.00,WeatherDisplay:10.37,2013-01-21 01:13:00,
2013-01-20 17:16:00,67.1,3.7,29.96,NNE,20,0.0,0.0,8,0.00,CLR,,0.00,WeatherDisplay:10.37,2013-01-21 01:16:00,
2013-01-20 17:18:00,66.8,3.5,29.96,NNE,27,0.0,0.0,8,0.00,CLR,,0.00,WeatherDisplay:10.37,2013-01-21 01:18:00,
2013-01-20 17:19:00,66.6,3.3,29.97,NNE,27,0.0,0.0,8,0.00,CLR,,0.00,WeatherDisplay:10.37,2013-01-21 01:19:00,
2013-01-20 17:22:00,66.3,3.1,29.97,ENE,76,0.0,0.0,8,0.00,CLR,,0.00,WeatherDisplay:10.37,2013-01-21 01:22:00,
2013-01-20 17:23:00,66.1,3.0,29.97,ENE,67,0.0,0.0,8,0.00,CLR,,0.00,WeatherDisplay:10.37,2013-01-21 01:23:00,
2013-01-20 17:24:00,66.1,3.0,29.97,ENE,68,0.0,0.0,8,0.00,CLR,,0.00,WeatherDisplay:10.37,2013-01-21 01:24:00,
2013-01-20 17:25:00,66.0,2.9,29.97,ENE,68,0.0,0.0,8,0.00,CLR,,0.00,WeatherDisplay:10.37,2013-01-21 01:25:00,
2013-01-20 17:29:00,65.6,2.6,29.92,ENE,71,0.0,0.0,8,0.00,CLR,,0.00,WeatherDisplay:10.37,2013-01-21 01:29:00,
2013-01-20 17:30:00,65.5,2.5,29.92,ENE,71,0.0,0.0,8,0.00,CLR,,0.00,WeatherDisplay:10.37,2013-01-21 01:30:00,
2013-01-20 17:31:00,65.5,2.5,29.92,ENE,71,0.0,0.0,8,0.00,CLR,,0.00,WeatherDisplay:10.37,2013-01-21 01:31:00,
2013-01-20 17:33:00,65.2,2.3,29.92,ENE,68,0.0,0.0,8,0.00,CLR,,0.00,WeatherDisplay:10.37,2013-01-21 01:33:00,
2013-01-20 17:35:00,64.8,4.5,29.92,ENE,68,0.0,0.0,9,0.00,CLR,,0.00,WeatherDisplay:10.37,2013-01-21 01:35:00,
2013-01-20 17:37:00,64.7,4.5,29.92,ENE,68,0.0,0.0,9,0.00,CLR,,0.00,WeatherDisplay:10.37,2013-01-21 01:37:00,
2013-01-20 17:40:00,64.3,4.2,29.93,ENE,70,0.0,0.0,9,0.00,CLR,,0.00,WeatherDisplay:10.37,2013-01-21 01:40:00,
2013-01-20 17:42:00,64.0,3.9,29.93,ENE,70,0.0,0.0,9,0.00,CLR,,0.00,WeatherDisplay:10.37,2013-01-21 01:42:00,
2013-01-20 17:43:00,64.0,6.2,29.93,ENE,70,0.0,0.0,10,0.00,CLR,,0.00,WeatherDisplay:10.37,2013-01-21 01:43:00,
2013-01-20 17:45:00,63.7,6.0,29.93,ENE,70,0.0,0.0,10,0.00,CLR,,0.00,WeatherDisplay:10.37,2013-01-21 01:45:00,
2013-01-20 17:48:00,63.2,9.7,29.94,ENE,70,0.0,0.0,12,0.00,CLR,,0.00,WeatherDisplay:10.37,2013-01-21 01:48:00,
2013-01-20 17:50:00,63.1,9.6,29.94,ENE,77,0.0,0.0,12,0.00,CLR,,0.00,WeatherDisplay:10.37,2013-01-21 01:50:00,
2013-01-20 17:52:00,62.6,11.0,29.94,East,79,0.0,0.0,13,0.00,CLR,,0.00,WeatherDisplay:10.37,2013-01-21 01:52:00,
2013-01-20 17:54:00,62.3,12.4,29.94,ENE,57,0.0,0.0,14,0.00,CLR,,0.00,WeatherDisplay:10.37,2013-01-21 01:54:00,
2013-01-20 17:56:00,61.6,11.9,29.94,ENE,63,0.0,0.0,14,0.00,CLR,,0.00,WeatherDisplay:10.37,2013-01-21 01:56:00,
2013-01-20 17:57:00,61.3,13.2,29.94,ENE,68,0.0,0.0,15,0.00,CLR,,0.00,WeatherDisplay:10.37,2013-01-21 01:57:00,
2013-01-20 17:58:00,61.3,13.2,29.95,ENE,68,0.0,0.0,15,0.00,CLR,,0.00,WeatherDisplay:10.37,2013-01-21 01:58:00,
2013-01-20 18:01:00,60.7,12.7,29.95,ENE,68,0.0,0.0,15,0.00,CLR,,0.00,WeatherDisplay:10.37,2013-01-21 02:01:00,
2013-01-20 18:02:00,60.5,12.5,29.95,East,96,0.0,0.0,15,0.00,CLR,,0.00,WeatherDisplay:10.37,2013-01-21 02:02:00,
2013-01-20 18:03:00,60.4,12.5,29.95,East,96,0.0,0.0,15,0.00,CLR,,0.00,WeatherDisplay:10.37,2013-01-21 02:03:00,
2013-01-20 18:07:00,60.1,13.7,29.95,ENE,75,0.0,0.0,16,0.00,CLR,,0.00,WeatherDisplay:10.37,2013-01-21 02:07:00,
2013-01-20 18:10:00,59.8,13.4,29.95,ESE,109,0.0,0.0,16,0.00,CLR,,0.00,WeatherDisplay:10.37,2013-01-21 02:10:00,
2013-01-20 18:13:00,59.5,13.2,29.96,East,101,0.0,0.0,16,0.00,CLR,,0.00,WeatherDisplay:10.37,2013-01-21 02:13:00,
2013-01-20 18:14:00,59.3,13.0,29.96,East,101,0.0,0.0,16,0.00,CLR,,0.00,WeatherDisplay:10.37,2013-01-21 02:14:00,
2013-01-20 18:15:00,59.3,13.0,29.96,ESE,104,0.0,0.0,16,0.00,CLR,,0.00,WeatherDisplay:10.37,2013-01-21 02:15:00,
2013-01-20 18:18:00,59.2,13.0,29.96,ESE,104,0.0,0.0,16,0.00,CLR,,0.00,WeatherDisplay:10.37,2013-01-21 02:18:00,
2013-01-20 18:19:00,59.0,12.8,29.96,ESE,104,0.0,0.0,16,0.00,CLR,,0.00,WeatherDisplay:10.37,2013-01-21 02:19:00,
2013-01-20 18:20:00,58.9,12.7,29.97,ESE,104,0.0,0.0,16,0.00,CLR,,0.00,WeatherDisplay:10.37,2013-01-21 02:20:00,
2013-01-20 18:21:00,58.9,12.7,29.97,East,92,0.0,0.0,16,0.00,CLR,,0.00,WeatherDisplay:10.37,2013-01-21 02:21:00,
2013-01-20 18:23:00,58.7,12.6,29.97,East,91,0.0,0.0,16,0.00,CLR,,0.00,WeatherDisplay:10.37,2013-01-21 02:23:00,
2013-01-20 18:25:00,58.6,12.5,29.97,East,91,0.0,0.0,16,0.00,CLR,,0.00,WeatherDisplay:10.37,2013-01-21 02:25:00,
2013-01-20 18:28:00,58.4,12.3,29.97,East,91,0.0,0.0,16,0.00,CLR,,0.00,WeatherDisplay:10.37,2013-01-21 02:28:00,
2013-01-20 18:29:00,58.4,12.3,29.97,East,91,0.0,0.0,16,0.00,CLR,,0.00,WeatherDisplay:10.37,2013-01-21 02:29:00,
2013-01-20 18:30:00,58.3,12.2,29.97,East,91,0.0,0.0,16,0.00,CLR,,0.00,WeatherDisplay:10.37,2013-01-21 02:30:00,
2013-01-20 18:31:00,58.3,12.2,29.97,East,91,0.0,0.0,16,0.00,CLR,,0.00,WeatherDisplay:10.37,2013-01-21 02:31:00,
2013-01-20 18:35:00,58.1,12.1,29.97,East,85,0.0,0.0,16,0.00,CLR,,0.00,WeatherDisplay:10.37,2013-01-21 02:35:00,
2013-01-20 18:37:00,58.1,10.6,29.98,East,79,0.0,0.0,15,0.00,CLR,,0.00,WeatherDisplay:10.37,2013-01-21 02:37:00,
2013-01-20 18:39:00,58.1,9.1,29.98,East,80,0.0,0.0,14,0.00,CLR,,0.00,WeatherDisplay:10.37,2013-01-21 02:39:00,
2013-01-20 18:40:00,58.1,9.1,29.98,ENE,68,0.0,0.0,14,0.00,CLR,,0.00,WeatherDisplay:10.37,2013-01-21 02:40:00,
2013-01-20 18:43:00,58.3,7.6,29.98,ENE,78,0.0,0.0,13,0.00,CLR,,0.00,WeatherDisplay:10.37,2013-01-21 02:43:00,
2013-01-20 18:44:00,58.3,7.6,29.98,ENE,78,0.0,0.0,13,0.00,CLR,,0.00,WeatherDisplay:10.37,2013-01-21 02:44:00,
2013-01-20 18:45:00,58.4,7.7,29.98,ENE,78,0.0,0.0,13,0.00,CLR,,0.00,WeatherDisplay:10.37,2013-01-21 02:45:00,
2013-01-20 18:50:00,58.6,6.1,29.98,East,89,0.0,0.0,12,0.00,CLR,,0.00,WeatherDisplay:10.37,2013-01-21 02:50:00,
2013-01-20 18:52:00,58.6,7.8,29.98,East,89,0.0,0.0,13,0.00,CLR,,0.00,WeatherDisplay:10.37,2013-01-21 02:52:00,
2013-01-20 18:55:00,58.6,6.1,29.98,East,89,0.0,0.0,12,0.00,CLR,,0.00,WeatherDisplay:10.37,2013-01-21 02:55:00,
2013-01-20 18:57:00,58.4,5.9,29.98,East,89,0.0,0.0,12,0.00,CLR,,0.00,WeatherDisplay:10.37,2013-01-21 02:57:00,
2013-01-20 18:58:00,58.4,7.7,29.98,East,89,0.0,0.0,13,0.00,CLR,,0.00,WeatherDisplay:10.37,2013-01-21 02:58:00,
2013-01-20 19:00:00,58.3,7.6,29.99,East,89,0.0,0.0,13,0.00,CLR,,0.00,WeatherDisplay:10.37,2013-01-21 03:00:00,
2013-01-20 19:03:00,58.0,7.3,29.99,East,89,0.0,0.0,13,0.00,CLR,,0.00,WeatherDisplay:10.37,2013-01-21 03:03:00,
2013-01-20 19:05:00,57.9,7.2,29.99,East,89,0.0,0.0,13,0.00,CLR,,0.00,WeatherDisplay:10.37,2013-01-21 03:05:00,
2013-01-20 19:06:00,57.6,7.0,29.99,East,89,0.0,0.0,13,0.00,CLR,,0.00,WeatherDisplay:10.37,2013-01-21 03:06:00,
2013-01-20 19:08:00,57.5,8.6,29.99,East,89,0.0,0.0,14,0.00,CLR,,0.00,WeatherDisplay:10.37,2013-01-21 03:08:00,
2013-01-20 19:10:00,57.3,8.5,29.99,East,89,0.0,0.0,14,0.00,CLR,,0.00,WeatherDisplay:10.37,2013-01-21 03:10:00,
2013-01-20 19:15:00,56.8,8.1,29.99,East,89,0.0,0.0,14,0.00,CLR,,0.00,WeatherDisplay:10.37,2013-01-21 03:15:00,
2013-01-20 19:17:00,56.5,9.3,29.99,East,89,0.0,0.0,15,0.00,CLR,,0.00,WeatherDisplay:10.37,2013-01-21 03:17:00,
2013-01-20 19:20:00,56.0,8.9,30.00,East,89,0.0,0.0,15,0.00,CLR,,0.00,WeatherDisplay:10.37,2013-01-21 03:20:00,
2013-01-20 19:22:00,55.4,9.9,30.00,East,89,0.0,0.0,16,0.00,CLR,,0.00,WeatherDisplay:10.37,2013-01-21 03:22:00,
2013-01-20 19:23:00,55.4,9.9,30.00,East,89,0.0,0.0,16,0.00,CLR,,0.00,WeatherDisplay:10.37,2013-01-21 03:23:00,
2013-01-20 19:25:00,55.1,9.6,30.00,East,89,0.0,0.0,16,0.00,CLR,,0.00,WeatherDisplay:10.37,2013-01-21 03:25:00,
2013-01-20 19:27:00,54.8,9.4,30.00,East,89,1.1,0.0,16,0.00,CLR,,0.00,WeatherDisplay:10.37,2013-01-21 03:27:00,
2013-01-20 19:28:00,54.7,9.3,30.00,East,89,0.0,0.0,16,0.00,CLR,,0.00,WeatherDisplay:10.37,2013-01-21 03:28:00,
2013-01-20 19:32:00,54.2,10.3,30.02,East,89,0.0,0.0,17,0.00,CLR,,0.00,WeatherDisplay:10.37,2013-01-21 03:32:00,
2013-01-20 19:34:00,54.1,10.2,30.02,East,89,0.0,0.0,17,0.00,CLR,,0.00,WeatherDisplay:10.37,2013-01-21 03:34:00,
2013-01-20 19:37:00,53.6,9.8,30.02,East,89,0.0,0.0,17,0.00,CLR,,0.00,WeatherDisplay:10.37,2013-01-21 03:37:00,
2013-01-20 19:40:00,53.5,9.7,30.02,East,89,0.0,0.0,17,0.00,CLR,,0.00,WeatherDisplay:10.37,2013-01-21 03:40:00,
2013-01-20 19:42:00,53.2,10.7,30.03,East,89,0.0,0.0,18,0.00,CLR,,0.00,WeatherDisplay:10.37,2013-01-21 03:42:00,
2013-01-20 19:45:00,53.1,10.6,30.03,East,89,0.0,0.0,18,0.00,CLR,,0.00,WeatherDisplay:10.37,2013-01-21 03:45:00,
2013-01-20 19:46:00,52.8,10.4,30.03,East,86,0.0,0.0,18,0.00,CLR,,0.00,WeatherDisplay:10.37,2013-01-21 03:46:00,
2013-01-20 19:47:00,52.8,10.4,30.03,East,86,0.0,0.0,18,0.00,CLR,,0.00,WeatherDisplay:10.37,2013-01-21 03:47:00,
2013-01-20 19:50:00,52.5,10.1,30.03,East,86,0.0,0.0,18,0.00,CLR,,0.00,WeatherDisplay:10.37,2013-01-21 03:50:00,
2013-01-20 19:52:00,52.2,11.1,30.03,East,86,0.0,0.0,19,0.00,CLR,,0.00,WeatherDisplay:10.37,2013-01-21 03:52:00,
2013-01-20 19:54:00,52.2,11.1,30.03,ENE,68,0.0,0.0,19,0.00,CLR,,0.00,WeatherDisplay:10.37,2013-01-21 03:54:00,
2013-01-20 19:57:00,52.0,9.7,30.04,ENE,70,0.0,0.0,18,0.00,CLR,,0.00,WeatherDisplay:10.37,2013-01-21 03:57:00,
2013-01-20 19:59:00,52.2,9.9,30.04,ENE,70,0.0,0.0,18,0.00,CLR,,0.00,WeatherDisplay:10.37,2013-01-21 03:59:00,
2013-01-20 20:02:00,52.2,9.9,30.04,ENE,70,0.0,0.0,18,0.00,CLR,,0.00,WeatherDisplay:10.37,2013-01-21 04:02:00,
2013-01-20 20:05:00,52.2,9.9,30.04,ENE,70,0.0,0.0,18,0.00,CLR,,0.00,WeatherDisplay:10.37,2013-01-21 04:05:00,
2013-01-20 20:07:00,52.0,9.7,30.04,ENE,70,0.0,0.0,18,0.00,CLR,,0.00,WeatherDisplay:10.37,2013-01-21 04:07:00,
2013-01-20 20:10:00,52.0,9.7,30.04,ENE,70,0.0,0.0,18,0.00,CLR,,0.00,WeatherDisplay:10.37,2013-01-21 04:10:00,
2013-01-20 20:13:00,52.0,8.5,30.04,ENE,70,0.0,0.0,17,0.00,CLR,,0.00,WeatherDisplay:10.37,2013-01-21 04:13:00,
2013-01-20 20:15:00,52.0,8.5,30.04,ENE,70,0.0,0.0,17,0.00,CLR,,0.00,WeatherDisplay:10.37,2013-01-21 04:15:00,
2013-01-20 20:16:00,52.0,8.5,30.04,ENE,70,0.0,0.0,17,0.00,CLR,,0.00,WeatherDisplay:10.37,2013-01-21 04:16:00,
2013-01-20 20:18:00,52.0,8.5,30.04,ENE,70,0.0,0.0,17,0.00,CLR,,0.00,WeatherDisplay:10.37,2013-01-21 04:18:00,
2013-01-20 20:19:00,52.0,8.5,30.04,ENE,58,0.0,0.0,17,0.00,CLR,,0.00,WeatherDisplay:10.37,2013-01-21 04:19:00,
2013-01-20 20:21:00,52.0,8.5,30.04,ENE,60,0.0,0.0,17,0.00,CLR,,0.00,WeatherDisplay:10.37,2013-01-21 04:21:00,
2013-01-20 20:23:00,52.0,8.5,30.04,ENE,60,0.0,0.0,17,0.00,CLR,,0.00,WeatherDisplay:10.37,2013-01-21 04:23:00,
2013-01-20 20:24:00,52.0,8.5,30.04,ENE,60,0.0,0.0,17,0.00,CLR,,0.00,WeatherDisplay:10.37,2013-01-21 04:24:00,
2013-01-20 20:28:00,51.9,8.4,30.04,ENE,77,0.0,0.0,17,0.00,CLR,,0.00,WeatherDisplay:10.37,2013-01-21 04:28:00,
2013-01-20 20:29:00,51.9,8.4,30.02,East,79,0.0,0.0,17,0.00,CLR,,0.00,WeatherDisplay:10.37,2013-01-21 04:29:00,
2013-01-20 20:31:00,51.9,8.4,30.02,ENE,73,0.0,0.0,17,0.00,CLR,,0.00,WeatherDisplay:10.37,2013-01-21 04:31:00,
2013-01-20 20:33:00,51.9,8.4,30.02,ENE,74,0.0,0.0,17,0.00,CLR,,0.00,WeatherDisplay:10.37,2013-01-21 04:33:00,
2013-01-20 20:36:00,51.9,7.0,30.02,ENE,68,0.0,0.0,16,0.00,CLR,,0.00,WeatherDisplay:10.37,2013-01-21 04:36:00,
2013-01-20 20:37:00,51.9,8.4,30.02,ENE,68,0.0,0.0,17,0.00,CLR,,0.00,WeatherDisplay:10.37,2013-01-21 04:37:00,
2013-01-20 20:38:00,51.9,8.4,30.02,ENE,68,0.0,0.0,17,0.00,CLR,,0.00,WeatherDisplay:10.37,2013-01-21 04:38:00,
2013-01-20 20:40:00,51.7,8.2,30.02,ENE,68,0.0,0.0,17,0.00,CLR,,0.00,WeatherDisplay:10.37,2013-01-21 04:40:00,
2013-01-20 20:43:00,51.6,8.1,30.02,ENE,68,0.0,0.0,17,0.00,CLR,,0.00,WeatherDisplay:10.37,2013-01-21 04:43:00,
2013-01-20 20:45:00,51.6,8.1,30.02,ENE,68,0.0,0.0,17,0.00,CLR,,0.00,WeatherDisplay:10.37,2013-01-21 04:45:00,
2013-01-20 20:47:00,51.4,8.0,30.02,ENE,68,0.0,0.0,17,0.00,CLR,,0.00,WeatherDisplay:10.37,2013-01-21 04:47:00,
2013-01-20 20:50:00,51.3,7.9,30.02,East,82,0.0,0.0,17,0.00,CLR,,0.00,WeatherDisplay:10.37,2013-01-21 04:50:00,
2013-01-20 20:52:00,51.1,9.0,30.02,East,82,0.0,0.0,18,0.00,CLR,,0.00,WeatherDisplay:10.37,2013-01-21 04:52:00,
2013-01-20 20:54:00,50.8,8.7,30.02,East,82,0.0,0.0,18,0.00,CLR,,0.00,WeatherDisplay:10.37,2013-01-21 04:54:00,
2013-01-20 20:56:00,50.8,8.7,30.02,East,82,0.0,0.0,18,0.00,CLR,,0.00,WeatherDisplay:10.37,2013-01-21 04:56:00,
2013-01-20 20:57:00,50.7,7.4,30.02,East,82,0.0,0.0,17,0.00,CLR,,0.00,WeatherDisplay:10.37,2013-01-21 04:57:00,
2013-01-20 21:00:00,50.5,8.5,30.02,East,82,0.0,0.0,18,0.00,CLR,,0.00,WeatherDisplay:10.37,2013-01-21 05:00:00,
2013-01-20 21:03:00,50.4,8.4,30.03,East,82,0.0,0.0,18,0.00,CLR,,0.00,WeatherDisplay:10.37,2013-01-21 05:03:00,
2013-01-20 21:06:00,50.2,8.2,30.03,East,82,0.0,0.0,18,0.00,CLR,,0.00,WeatherDisplay:10.37,2013-01-21 05:06:00,
2013-01-20 21:08:00,50.1,8.2,30.03,ENE,74,0.0,0.0,18,0.00,CLR,,0.00,WeatherDisplay:10.37,2013-01-21 05:08:00,
2013-01-20 21:09:00,49.9,9.2,30.03,ENE,74,0.0,0.0,19,0.00,CLR,,0.00,WeatherDisplay:10.37,2013-01-21 05:09:00,
2013-01-20 21:10:00,50.0,9.3,30.03,East,80,0.0,0.0,19,0.00,CLR,,0.00,WeatherDisplay:10.37,2013-01-21 05:10:00,
2013-01-20 21:12:00,49.9,8.0,30.03,ENE,74,0.0,0.0,18,0.00,CLR,,0.00,WeatherDisplay:10.37,2013-01-21 05:12:00,
2013-01-20 21:13:00,49.9,8.0,30.03,ENE,73,0.0,0.0,18,0.00,CLR,,0.00,WeatherDisplay:10.37,2013-01-21 05:13:00,
2013-01-20 21:15:00,49.9,8.0,30.03,ENE,68,0.0,0.0,18,0.00,CLR,,0.00,WeatherDisplay:10.37,2013-01-21 05:15:00,
2013-01-20 21:16:00,49.9,8.0,30.03,NE,46,0.0,0.0,18,0.00,CLR,,0.00,WeatherDisplay:10.37,2013-01-21 05:16:00,
2013-01-20 21:19:00,50.1,8.2,30.03,East,81,0.0,0.0,18,0.00,CLR,,0.00,WeatherDisplay:10.37,2013-01-21 05:19:00,
2013-01-20 21:22:00,50.2,7.0,30.03,ENE,61,0.0,0.0,17,0.00,CLR,,0.00,WeatherDisplay:10.37,2013-01-21 05:22:00,
2013-01-20 21:24:00,50.4,7.1,30.03,ENE,73,0.0,0.0,17,0.00,CLR,,0.00,WeatherDisplay:10.37,2013-01-21 05:24:00,
2013-01-20 21:27:00,50.5,7.2,30.02,ENE,68,0.0,0.0,17,0.00,CLR,,0.00,WeatherDisplay:10.37,2013-01-21 05:27:00,
2013-01-20 21:30:00,50.7,7.4,30.01,SE,130,0.0,0.0,17,0.00,CLR,,0.00,WeatherDisplay:10.37,2013-01-21 05:30:00,
2013-01-20 21:31:00,50.7,7.4,30.01,East,84,0.0,0.0,17,0.00,CLR,,0.00,WeatherDisplay:10.37,2013-01-21 05:31:00,
2013-01-20 21:33:00,50.7,7.4,30.01,East,84,0.0,0.0,17,0.00,CLR,,0.00,WeatherDisplay:10.37,2013-01-21 05:33:00,
2013-01-20 21:34:00,50.7,7.4,30.01,ENE,68,0.0,0.0,17,0.00,CLR,,0.00,WeatherDisplay:10.37,2013-01-21 05:34:00,
2013-01-20 21:36:00,50.7,7.4,30.01,ENE,78,0.0,0.0,17,0.00,CLR,,0.00,WeatherDisplay:10.37,2013-01-21 05:36:00,
2013-01-20 21:38:00,50.7,7.4,30.01,ENE,77,0.0,0.0,17,0.00,CLR,,0.00,WeatherDisplay:10.37,2013-01-21 05:38:00,
2013-01-20 21:39:00,50.7,7.4,30.01,ENE,77,0.0,0.0,17,0.00,CLR,,0.00,WeatherDisplay:10.37,2013-01-21 05:39:00,
2013-01-20 21:42:00,50.5,7.2,30.01,ENE,70,0.0,0.0,17,0.00,CLR,,0.00,WeatherDisplay:10.37,2013-01-21 05:42:00,
2013-01-20 21:43:00,50.5,7.2,30.01,ENE,70,0.0,0.0,17,0.00,CLR,,0.00,WeatherDisplay:10.37,2013-01-21 05:43:00,
2013-01-20 21:44:00,50.5,7.2,30.01,ENE,70,0.0,0.0,17,0.00,CLR,,0.00,WeatherDisplay:10.37,2013-01-21 05:44:00,
2013-01-20 21:47:00,50.2,7.0,30.01,ENE,70,0.0,0.0,17,0.00,CLR,,0.00,WeatherDisplay:10.37,2013-01-21 05:47:00,
2013-01-20 21:48:00,50.2,8.2,30.02,ENE,70,0.0,0.0,18,0.00,CLR,,0.00,WeatherDisplay:10.37,2013-01-21 05:48:00,
2013-01-20 21:49:00,50.1,6.9,30.01,ENE,70,0.0,0.0,17,0.00,CLR,,0.00,WeatherDisplay:10.37,2013-01-21 05:49:00,
2013-01-20 21:52:00,49.9,8.0,30.02,ENE,70,0.0,0.0,18,0.00,CLR,,0.00,WeatherDisplay:10.37,2013-01-21 05:52:00,
2013-01-20 21:54:00,49.8,7.9,30.02,ENE,70,0.0,0.0,18,0.00,CLR,,0.00,WeatherDisplay:10.37,2013-01-21 05:54:00,
2013-01-20 21:56:00,49.6,7.8,30.02,ENE,70,0.0,0.0,18,0.00,CLR,,0.00,WeatherDisplay:10.37,2013-01-21 05:56:00,
2013-01-20 21:57:00,49.5,7.7,30.02,ENE,70,0.0,0.0,18,0.00,CLR,,0.00,WeatherDisplay:10.37,2013-01-21 05:57:00,
2013-01-20 21:58:00,49.5,7.7,30.02,ENE,70,0.0,0.0,18,0.00,CLR,,0.00,WeatherDisplay:10.37,2013-01-21 05:58:00,
2013-01-20 22:00:00,49.5,7.6,30.02,ENE,70,0.0,0.0,18,0.00,CLR,,0.00,WeatherDisplay:10.37,2013-01-21 06:00:00,
2013-01-20 22:01:00,49.4,7.6,30.02,ENE,70,0.0,0.0,18,0.00,CLR,,0.00,WeatherDisplay:10.37,2013-01-21 06:01:00,
2013-01-20 22:03:00,49.4,7.6,30.02,ENE,71,0.0,0.0,18,0.00,CLR,,0.00,WeatherDisplay:10.37,2013-01-21 06:03:00,
2013-01-20 22:05:00,49.4,6.3,30.02,ENE,76,0.0,0.0,17,0.00,CLR,,0.00,WeatherDisplay:10.37,2013-01-21 06:05:00,
2013-01-20 22:06:00,49.4,6.3,30.02,ENE,76,0.0,0.0,17,0.00,CLR,,0.00,WeatherDisplay:10.37,2013-01-21 06:06:00,
2013-01-20 22:09:00,49.5,6.4,30.02,ENE,76,0.0,0.0,17,0.00,CLR,,0.00,WeatherDisplay:10.37,2013-01-21 06:09:00,
2013-01-20 22:11:00,49.5,7.7,30.02,ENE,76,0.0,0.0,18,0.00,CLR,,0.00,WeatherDisplay:10.37,2013-01-21 06:11:00,
2013-01-20 22:13:00,49.5,6.4,30.02,ENE,76,0.0,0.0,17,0.00,CLR,,0.00,WeatherDisplay:10.37,2013-01-21 06:13:00,
2013-01-20 22:14:00,49.4,6.3,30.01,ENE,76,0.0,0.0,17,0.00,CLR,,0.00,WeatherDisplay:10.37,2013-01-21 06:14:00,
2013-01-20 22:17:00,49.4,7.6,30.02,ENE,76,0.0,0.0,18,0.00,CLR,,0.00,WeatherDisplay:10.37,2013-01-21 06:17:00,
2013-01-20 22:19:00,49.2,7.4,30.01,ENE,76,0.0,0.0,18,0.00,CLR,,0.00,WeatherDisplay:10.37,2013-01-21 06:19:00,
2013-01-20 22:20:00,49.2,7.4,30.01,ENE,76,0.0,0.0,18,0.00,CLR,,0.00,WeatherDisplay:10.37,2013-01-21 06:20:00,
2013-01-20 22:21:00,49.2,7.4,30.01,ENE,76,0.0,0.0,18,0.00,CLR,,0.00,WeatherDisplay:10.37,2013-01-21 06:21:00,
2013-01-20 22:23:00,49.1,7.3,30.01,ENE,76,0.0,0.0,18,0.00,CLR,,0.00,WeatherDisplay:10.37,2013-01-21 06:23:00,
2013-01-20 22:25:00,49.1,8.5,30.01,ENE,76,0.0,0.0,19,0.00,CLR,,0.00,WeatherDisplay:10.37,2013-01-21 06:25:00,
2013-01-20 22:27:00,48.9,8.4,30.01,ENE,76,0.0,0.0,19,0.00,CLR,,0.00,WeatherDisplay:10.37,2013-01-21 06:27:00,
2013-01-20 22:28:00,48.9,8.4,30.01,ENE,76,0.0,0.0,19,0.00,CLR,,0.00,WeatherDisplay:10.37,2013-01-21 06:28:00,
2013-01-20 22:30:00,48.8,8.3,30.01,ENE,76,0.0,0.0,19,0.00,CLR,,0.00,WeatherDisplay:10.37,2013-01-21 06:30:00,
2013-01-20 22:32:00,48.6,6.9,30.01,East,80,0.0,0.0,18,0.00,CLR,,0.00,WeatherDisplay:10.37,2013-01-21 06:32:00,
2013-01-20 22:34:00,48.5,8.0,30.01,ENE,76,0.0,0.0,19,0.00,CLR,,0.00,WeatherDisplay:10.37,2013-01-21 06:34:00,
2013-01-20 22:36:00,48.6,5.7,30.01,ENE,76,0.0,0.0,17,0.00,CLR,,0.00,WeatherDisplay:10.37,2013-01-21 06:36:00,
2013-01-20 22:38:00,48.9,5.9,30.01,ESE,109,0.0,0.0,17,0.00,CLR,,0.00,WeatherDisplay:10.37,2013-01-21 06:38:00,
2013-01-20 22:39:00,48.9,5.9,30.01,ENE,66,0.0,0.0,17,0.00,CLR,,0.00,WeatherDisplay:10.37,2013-01-21 06:39:00,
2013-01-20 22:42:00,49.2,6.2,30.01,East,79,0.0,0.0,17,0.00,CLR,,0.00,WeatherDisplay:10.37,2013-01-21 06:42:00,
2013-01-20 22:43:00,49.2,6.2,30.01,East,79,0.0,0.0,17,0.00,CLR,,0.00,WeatherDisplay:10.37,2013-01-21 06:43:00,
2013-01-20 22:45:00,49.2,6.2,30.01,East,79,0.0,0.0,17,0.00,CLR,,0.00,WeatherDisplay:10.37,2013-01-21 06:45:00,
2013-01-20 22:48:00,49.1,8.5,30.01,East,79,0.0,0.0,19,0.00,CLR,,0.00,WeatherDisplay:10.37,2013-01-21 06:48:00,
2013-01-20 22:51:00,48.8,8.3,30.01,East,79,0.0,0.0,19,0.00,CLR,,0.00,WeatherDisplay:10.37,2013-01-21 06:51:00,
2013-01-20 22:52:00,48.6,9.3,30.01,East,79,0.0,0.0,20,0.00,CLR,,0.00,WeatherDisplay:10.37,2013-01-21 06:52:00,
2013-01-20 22:55:00,48.3,7.9,30.01,East,79,0.0,0.0,19,0.00,CLR,,0.00,WeatherDisplay:10.37,2013-01-21 06:55:00,
2013-01-20 22:57:00,48.0,8.8,30.01,East,79,0.0,0.0,20,0.00,CLR,,0.00,WeatherDisplay:10.37,2013-01-21 06:57:00,
2013-01-20 22:58:00,47.9,8.7,30.01,East,79,0.0,0.0,20,0.00,CLR,,0.00,WeatherDisplay:10.37,2013-01-21 06:58:00,
2013-01-20 22:59:00,47.7,8.5,30.01,East,79,0.0,0.0,20,0.00,CLR,,0.00,WeatherDisplay:10.37,2013-01-21 06:59:00,
2013-01-20 23:00:00,47.7,8.5,30.01,East,79,0.0,0.0,20,0.00,CLR,,0.00,WeatherDisplay:10.37,2013-01-21 07:00:00,
2013-01-20 23:03:00,47.4,8.3,30.01,East,79,0.0,0.0,20,0.00,CLR,,0.00,WeatherDisplay:10.37,2013-01-21 07:03:00,
2013-01-20 23:05:00,47.3,8.2,30.01,East,80,0.0,0.0,20,0.00,CLR,,0.00,WeatherDisplay:10.37,2013-01-21 07:05:00,
2013-01-20 23:08:00,47.4,8.3,30.01,ESE,114,0.0,0.0,20,0.00,CLR,,0.00,WeatherDisplay:10.37,2013-01-21 07:08:00,
2013-01-20 23:11:00,47.7,8.5,30.01,ESE,114,0.0,0.0,20,0.00,CLR,,0.00,WeatherDisplay:10.37,2013-01-21 07:11:00,
2013-01-20 23:13:00,47.7,8.5,30.01,ESE,114,0.0,0.0,20,0.00,CLR,,0.00,WeatherDisplay:10.37,2013-01-21 07:13:00,
2013-01-20 23:14:00,47.6,8.4,30.01,ESE,114,0.0,0.0,20,0.00,CLR,,0.00,WeatherDisplay:10.37,2013-01-21 07:14:00,
2013-01-20 23:17:00,47.6,8.4,30.00,ESE,114,0.0,0.0,20,0.00,CLR,,0.00,WeatherDisplay:10.37,2013-01-21 07:17:00,
2013-01-20 23:19:00,47.3,9.3,30.01,ESE,114,0.0,0.0,21,0.00,CLR,,0.00,WeatherDisplay:10.37,2013-01-21 07:19:00,
2013-01-20 23:22:00,47.0,9.0,30.01,East,82,0.0,0.0,21,0.00,CLR,,0.00,WeatherDisplay:10.37,2013-01-21 07:22:00,
2013-01-20 23:24:00,47.0,7.9,30.01,East,82,0.0,0.0,20,0.00,CLR,,0.00,WeatherDisplay:10.37,2013-01-21 07:24:00,
2013-01-20 23:25:00,47.0,7.9,30.01,East,101,0.0,0.0,20,0.00,CLR,,0.00,WeatherDisplay:10.37,2013-01-21 07:25:00,
2013-01-20 23:27:00,46.7,9.8,30.01,East,82,0.0,0.0,22,0.00,CLR,,0.00,WeatherDisplay:10.37,2013-01-21 07:27:00,
2013-01-20 23:29:00,46.5,9.6,30.00,East,82,0.0,0.0,22,0.00,CLR,,0.00,WeatherDisplay:10.37,2013-01-21 07:29:00,
2013-01-20 23:30:00,46.5,8.6,30.00,East,82,0.0,0.0,21,0.00,CLR,,0.00,WeatherDisplay:10.37,2013-01-21 07:30:00,
2013-01-20 23:33:00,46.4,8.5,30.00,East,82,0.0,0.0,21,0.00,CLR,,0.00,WeatherDisplay:10.37,2013-01-21 07:33:00,
2013-01-20 23:35:00,46.2,8.3,30.00,ENE,64,0.0,0.0,21,0.00,CLR,,0.00,WeatherDisplay:10.37,2013-01-21 07:35:00,
2013-01-20 23:36:00,46.2,7.3,30.00,ENE,64,0.0,0.0,20,0.00,CLR,,0.00,WeatherDisplay:10.37,2013-01-21 07:36:00,
2013-01-20 23:38:00,46.1,7.2,30.00,ENE,64,0.0,0.0,20,0.00,CLR,,0.00,WeatherDisplay:10.37,2013-01-21 07:38:00,
2013-01-20 23:41:00,46.1,7.2,30.00,ENE,64,0.0,0.0,20,0.00,CLR,,0.00,WeatherDisplay:10.37,2013-01-21 07:41:00,
2013-01-20 23:44:00,46.1,7.2,30.00,ENE,64,0.0,0.0,20,0.00,CLR,,0.00,WeatherDisplay:10.37,2013-01-21 07:44:00,
2013-01-20 23:46:00,46.1,7.2,30.00,NE,53,0.0,0.0,20,0.00,CLR,,0.00,WeatherDisplay:10.37,2013-01-21 07:46:00,
2013-01-20 23:49:00,46.1,6.0,30.00,ENE,68,0.0,0.0,19,0.00,CLR,,0.00,WeatherDisplay:10.37,2013-01-21 07:49:00,
2013-01-20 23:50:00,46.1,6.0,30.00,ENE,64,0.0,0.0,19,0.00,CLR,,0.00,WeatherDisplay:10.37,2013-01-21 07:50:00,
2013-01-20 23:51:00,46.1,6.0,30.00,ENE,68,0.0,0.0,19,0.00,CLR,,0.00,WeatherDisplay:10.37,2013-01-21 07:51:00,
2013-01-20 23:52:00,46.2,6.1,30.00,ENE,68,0.0,0.0,19,0.00,CLR,,0.00,WeatherDisplay:10.37,2013-01-21 07:52:00,
2013-01-20 23:55:00,46.2,6.1,30.00,ENE,68,0.0,0.0,19,0.00,CLR,,0.00,WeatherDisplay:10.37,2013-01-21 07:55:00,
2013-01-20 23:58:00,46.2,6.1,30.00,ENE,68,0.0,0.0,19,0.00,CLR,,0.00,WeatherDisplay:10.37,2013-01-21 07:58:00,
2013-01-20 23:59:00,46.2,6.1,30.00,ENE,68,0.0,0.0,19,0.00,CLR,,0.00,WeatherDisplay:10.37,2013-01-21 07:59:00,